THA911 EGLL-VTSP

Flight info

Callsign THA911
Flight time N/A
Altitude 33000
Route DET L6 DVR L9 KONAN UL607 KOK DCT MATUG DCT AMASI DCT BOMBI DCT TENLO DCT DEXIT DCT MAREG DCT ALAMU DCT BUDOP DCT UDROS UM859 KARDE/N0488F350 UN644 ROLIN N644 LAGAS M747 SULEL N449 DUKAN B449 RANAH L750 MERUN L333 KABEL/N0497F370 L333 KKJ/N0498F270 W49 BBS/N0495F370 L759 SATVA SATVA1C
Aircraft B77W/H-SDE1E2E3FGHIJ2J3J4J5M1RWXY/LB1D1

Departure

Time N/A
Airport London Heathrow Airport (EGLL)

Arrival

Time 2026-05-07 21:24
Airport Phuket International Airport (VTSP)
Time Latitude Longitude Altitude Speed Heading
2026-05-07 10:51 50.83855 4.14709 33058 ft 489 kts 106°
2026-05-07 10:51 50.82923 4.19920 33059 ft 489 kts 106°
2026-05-07 10:51 50.81081 4.30172 33059 ft 490 kts 106°
2026-05-07 10:52 50.79246 4.40323 33062 ft 489 kts 106°
2026-05-07 10:52 50.77410 4.50430 33060 ft 490 kts 105°
2026-05-07 10:53 50.75542 4.60649 33061 ft 489 kts 105°
2026-05-07 10:53 50.73682 4.70777 33059 ft 489 kts 106°
2026-05-07 10:54 50.71796 4.80984 33057 ft 489 kts 106°
2026-05-07 10:54 50.69905 4.91161 33055 ft 488 kts 106°
2026-05-07 10:55 50.68002 5.01351 33052 ft 488 kts 106°
2026-05-07 10:55 50.66097 5.11493 33053 ft 488 kts 106°
2026-05-07 10:56 50.64660 5.19105 33050 ft 488 kts 106°
2026-05-07 10:56 50.63298 5.26295 33054 ft 487 kts 106°
2026-05-07 10:57 50.61392 5.36311 33056 ft 488 kts 106°
2026-05-07 10:57 50.59517 5.46108 33060 ft 487 kts 106°
2026-05-07 10:58 50.57623 5.55961 33052 ft 488 kts 106°
2026-05-07 10:58 50.55754 5.65623 33054 ft 487 kts 107°
2026-05-07 10:59 50.54065 5.74324 33049 ft 488 kts 107°
2026-05-07 10:59 50.52383 5.82940 33046 ft 487 kts 107°
2026-05-07 11:00 50.50198 5.94081 33035 ft 487 kts 106°
2026-05-07 11:00 50.47914 6.05659 33027 ft 486 kts 107°
2026-05-07 11:01 50.43976 6.25458 33020 ft 486 kts 106°
2026-05-07 11:02 50.41989 6.35371 33019 ft 485 kts 107°
2026-05-07 11:02 50.40377 6.45207 33019 ft 485 kts 100°
2026-05-07 11:03 50.39064 6.55232 33016 ft 484 kts 101°
2026-05-07 11:03 50.37730 6.65120 33017 ft 484 kts 102°
2026-05-07 11:04 50.36510 6.73983 33012 ft 484 kts 102°
2026-05-07 11:04 50.35130 6.83878 33010 ft 483 kts 102°
2026-05-07 11:05 50.32439 7.02881 33008 ft 484 kts 102°
2026-05-07 11:06 50.30879 7.13763 33011 ft 484 kts 102°
2026-05-07 11:06 50.29391 7.24070 33019 ft 485 kts 102°
2026-05-07 11:07 50.27898 7.34328 33006 ft 484 kts 102°
2026-05-07 11:07 50.26403 7.44538 33002 ft 485 kts 102°
2026-05-07 11:08 50.24887 7.54814 33006 ft 486 kts 102°
2026-05-07 11:08 50.23369 7.65053 33015 ft 486 kts 103°
2026-05-07 11:09 50.21837 7.75339 33014 ft 487 kts 103°
2026-05-07 11:09 50.20299 7.85600 33015 ft 486 kts 103°
2026-05-07 11:10 50.18749 7.95868 33024 ft 487 kts 103°
2026-05-07 11:10 50.17192 8.06121 33015 ft 487 kts 103°
2026-05-07 11:11 50.15615 8.16432 33016 ft 488 kts 103°
2026-05-07 11:11 50.14043 8.26648 33018 ft 488 kts 103°
2026-05-07 11:12 50.12453 8.36922 33014 ft 488 kts 103°
2026-05-07 11:12 50.10853 8.47187 33015 ft 488 kts 103°
2026-05-07 11:13 50.09248 8.57420 33013 ft 489 kts 103°
2026-05-07 11:13 50.07647 8.67571 33017 ft 489 kts 104°
2026-05-07 11:14 50.06025 8.77785 33009 ft 489 kts 104°
2026-05-07 11:14 50.03927 8.87808 33006 ft 490 kts 109°
2026-05-07 11:15 50.01664 8.97824 33003 ft 489 kts 109°
2026-05-07 11:15 49.99413 9.07742 33006 ft 490 kts 109°
2026-05-07 11:16 49.97144 9.17704 32989 ft 490 kts 109°
2026-05-07 11:16 49.94866 9.27653 32988 ft 490 kts 109°
2026-05-07 11:17 49.92580 9.37597 32990 ft 490 kts 109°
2026-05-07 11:17 49.90278 9.47561 32980 ft 490 kts 109°
2026-05-07 11:18 49.87984 9.57448 32980 ft 491 kts 109°
2026-05-07 11:18 49.85672 9.67365 32969 ft 490 kts 110°
2026-05-07 11:19 49.83354 9.77262 32985 ft 491 kts 110°
2026-05-07 11:19 49.81030 9.87140 32963 ft 490 kts 110°
2026-05-07 11:20 49.78674 9.97109 32978 ft 491 kts 110°
2026-05-07 11:20 49.76368 10.06820 32965 ft 491 kts 110°
2026-05-07 11:21 49.74148 10.16128 32988 ft 493 kts 110°
2026-05-07 11:21 49.71738 10.26189 32982 ft 492 kts 110°
2026-05-07 11:22 49.69229 10.36615 32970 ft 493 kts 110°
2026-05-07 11:22 49.67068 10.45554 32972 ft 494 kts 110°
2026-05-07 11:23 49.64827 10.54787 32972 ft 493 kts 111°
2026-05-07 11:23 49.62666 10.63655 32977 ft 494 kts 111°
2026-05-07 11:24 49.60663 10.71840 32975 ft 492 kts 112°
2026-05-07 11:24 49.58309 10.81423 32973 ft 492 kts 112°
2026-05-07 11:25 49.53818 10.99592 32980 ft 491 kts 112°
2026-05-07 11:26 49.51483 11.08778 32986 ft 490 kts 114°
2026-05-07 11:26 49.49018 11.17792 32982 ft 491 kts 114°
2026-05-07 11:27 49.46092 11.28462 32981 ft 491 kts 114°
2026-05-07 11:27 49.43121 11.39274 32977 ft 491 kts 115°
2026-05-07 11:28 49.40533 11.48661 32976 ft 491 kts 115°
2026-05-07 11:28 49.37998 11.57827 32977 ft 491 kts 115°
2026-05-07 11:29 49.35368 11.67300 32972 ft 490 kts 116°
2026-05-07 11:29 49.32701 11.76872 32987 ft 490 kts 116°
2026-05-07 11:30 49.30069 11.86279 32993 ft 490 kts 116°
2026-05-07 11:30 49.27367 11.95901 32976 ft 489 kts 116°
2026-05-07 11:31 49.24683 12.05418 32984 ft 489 kts 116°
2026-05-07 11:31 49.21989 12.14933 32974 ft 489 kts 117°
2026-05-07 11:32 49.17928 12.29208 32977 ft 489 kts 117°
2026-05-07 11:33 49.15199 12.38753 32976 ft 489 kts 117°
2026-05-07 11:33 49.12480 12.48223 32977 ft 489 kts 117°
2026-05-07 11:34 49.09737 12.57742 32987 ft 487 kts 118°
2026-05-07 11:34 49.07067 12.66968 32981 ft 489 kts 119°
2026-05-07 11:35 49.04372 12.76246 32979 ft 487 kts 119°
2026-05-07 11:35 49.01678 12.85486 32977 ft 486 kts 119°
2026-05-07 11:36 48.98946 12.94822 32987 ft 488 kts 120°
2026-05-07 11:36 48.96234 13.04054 32980 ft 483 kts 120°
2026-05-07 11:37 48.93551 13.13147 32985 ft 487 kts 120°
2026-05-07 11:37 48.90753 13.22599 32991 ft 487 kts 120°
2026-05-07 11:38 48.88002 13.31857 32999 ft 487 kts 120°
2026-05-07 11:38 48.85216 13.41198 32989 ft 486 kts 120°
2026-05-07 11:39 48.82413 13.50552 32991 ft 488 kts 120°
2026-05-07 11:39 48.79612 13.59872 32993 ft 488 kts 121°
2026-05-07 11:40 48.76820 13.69157 32978 ft 489 kts 120°
2026-05-07 11:40 48.74938 13.78820 32993 ft 496 kts 110°
2026-05-07 11:41 48.73340 13.88955 32980 ft 498 kts 110°
2026-05-07 11:41 48.71703 13.99195 32979 ft 500 kts 110°
2026-05-07 11:42 48.70066 14.09321 32970 ft 498 kts 111°
2026-05-07 11:42 48.68410 14.19471 32975 ft 498 kts 110°
2026-05-07 11:43 48.66745 14.29589 32980 ft 500 kts 111°
2026-05-07 11:43 48.65204 14.38901 32990 ft 500 kts 110°
2026-05-07 11:44 48.63456 14.49398 32980 ft 498 kts 111°
2026-05-07 11:44 48.61790 14.59334 32980 ft 499 kts 111°
2026-05-07 11:45 48.60283 14.68275 32971 ft 497 kts 112°
2026-05-07 11:45 48.58581 14.78313 32974 ft 498 kts 112°
2026-05-07 11:46 48.56855 14.88441 32963 ft 496 kts 112°
2026-05-07 11:46 48.55250 14.97796 32971 ft 499 kts 111°
2026-05-07 11:47 48.53504 15.07922 32969 ft 498 kts 111°
2026-05-07 11:47 48.51796 15.17774 32975 ft 495 kts 112°
2026-05-07 11:48 48.50055 15.27756 32976 ft 497 kts 111°
2026-05-07 11:48 48.48332 15.37579 32971 ft 498 kts 112°
2026-05-07 11:49 48.46563 15.47610 32969 ft 495 kts 111°
2026-05-07 11:49 48.44787 15.57628 32973 ft 497 kts 112°
2026-05-07 11:50 48.43096 15.67110 32971 ft 495 kts 112°
2026-05-07 11:50 48.41264 15.77330 32971 ft 494 kts 112°
2026-05-07 11:51 48.39517 15.87020 32964 ft 495 kts 112°
2026-05-07 11:51 48.37716 15.96958 32961 ft 493 kts 112°
2026-05-07 11:52 48.35913 16.06852 32966 ft 493 kts 112°
2026-05-07 11:52 48.34093 16.16784 32966 ft 493 kts 112°
2026-05-07 11:53 48.32275 16.26643 32968 ft 494 kts 112°
2026-05-07 11:53 48.30471 16.36389 32973 ft 494 kts 112°
2026-05-07 11:54 48.28730 16.45740 32974 ft 496 kts 111°
2026-05-07 11:54 48.26836 16.55860 32971 ft 496 kts 112°
2026-05-07 11:55 48.24989 16.65679 32973 ft 495 kts 112°
2026-05-07 11:55 48.23109 16.75623 32973 ft 496 kts 112°
2026-05-07 11:56 48.21217 16.85573 32972 ft 496 kts 112°
2026-05-07 11:56 48.19266 16.95489 32966 ft 491 kts 117°
2026-05-07 11:57 48.16512 17.04573 32969 ft 488 kts 122°
2026-05-07 11:57 48.13607 17.13550 32971 ft 487 kts 122°
2026-05-07 11:58 48.10679 17.22537 32967 ft 487 kts 122°
2026-05-07 11:58 48.07782 17.31377 32964 ft 487 kts 122°
2026-05-07 11:59 48.04820 17.40377 32966 ft 487 kts 122°
2026-05-07 11:59 48.01866 17.49317 32963 ft 487 kts 122°
2026-05-07 12:00 47.98915 17.58214 32961 ft 487 kts 122°
2026-05-07 12:00 47.95924 17.67197 32957 ft 488 kts 123°
2026-05-07 12:01 47.92938 17.76138 32955 ft 487 kts 123°
2026-05-07 12:01 47.89999 17.84901 32954 ft 488 kts 122°
2026-05-07 12:02 47.87030 17.93729 32963 ft 489 kts 122°
2026-05-07 12:02 47.84062 18.02520 32967 ft 489 kts 122°
2026-05-07 12:03 47.81004 18.11549 32966 ft 489 kts 122°
2026-05-07 12:03 47.78080 18.20151 32967 ft 489 kts 122°
2026-05-07 12:04 47.75077 18.28955 32968 ft 490 kts 122°
2026-05-07 12:04 47.72119 18.37861 32972 ft 492 kts 120°
2026-05-07 12:05 47.69378 18.46709 32970 ft 493 kts 120°
2026-05-07 12:05 47.66508 18.55917 32969 ft 492 kts 120°
2026-05-07 12:06 47.63699 18.64873 32973 ft 493 kts 120°
2026-05-07 12:06 47.60887 18.73793 32981 ft 492 kts 121°
2026-05-07 12:07 47.58055 18.82733 32977 ft 493 kts 120°
2026-05-07 12:07 47.55179 18.91783 32979 ft 493 kts 121°
2026-05-07 12:08 47.52340 19.00677 32986 ft 494 kts 120°
2026-05-07 12:08 47.49455 19.09685 32985 ft 495 kts 120°
2026-05-07 12:09 47.46589 19.18602 32992 ft 495 kts 120°
2026-05-07 12:09 47.43689 19.27593 32990 ft 496 kts 120°
2026-05-07 12:10 47.40788 19.36554 32987 ft 496 kts 120°
2026-05-07 12:10 47.37841 19.45626 32990 ft 497 kts 120°
2026-05-07 12:11 47.34863 19.54759 32989 ft 497 kts 120°
2026-05-07 12:11 47.31858 19.63945 32993 ft 497 kts 120°
2026-05-07 12:12 47.28853 19.73096 32989 ft 497 kts 120°
2026-05-07 12:12 47.25807 19.82338 32970 ft 499 kts 120°
2026-05-07 12:13 47.22796 19.91445 32981 ft 498 kts 120°
2026-05-07 12:13 47.19791 20.00495 32988 ft 500 kts 120°
2026-05-07 12:14 47.16751 20.09626 32986 ft 500 kts 120°
2026-05-07 12:14 47.13716 20.18706 32990 ft 501 kts 120°
2026-05-07 12:15 47.10632 20.27903 32995 ft 501 kts 120°
2026-05-07 12:15 47.07529 20.37119 32997 ft 503 kts 120°
2026-05-07 12:16 47.04409 20.46358 32988 ft 502 kts 120°
2026-05-07 12:16 47.01295 20.55542 33004 ft 504 kts 120°
2026-05-07 12:17 46.98145 20.64801 32997 ft 505 kts 120°
2026-05-07 12:17 46.95035 20.73912 33006 ft 505 kts 121°
2026-05-07 12:18 46.91893 20.83083 33008 ft 505 kts 121°
2026-05-07 12:18 46.88726 20.92294 33015 ft 506 kts 121°
2026-05-07 12:19 46.85594 21.01372 33016 ft 507 kts 120°
2026-05-07 12:19 46.82452 21.10451 33019 ft 506 kts 121°
2026-05-07 12:20 46.79305 21.19509 33018 ft 506 kts 121°
2026-05-07 12:20 46.76199 21.28417 33024 ft 508 kts 120°
2026-05-07 12:21 46.73020 21.37509 33023 ft 506 kts 120°
2026-05-07 12:21 46.69849 21.46542 33026 ft 508 kts 120°
2026-05-07 12:22 46.66571 21.55673 33024 ft 507 kts 121°
2026-05-07 12:22 46.63222 21.64732 33030 ft 508 kts 121°
2026-05-07 12:23 46.59970 21.73514 33021 ft 507 kts 122°
2026-05-07 12:23 46.56679 21.82375 33020 ft 508 kts 122°
2026-05-07 12:24 46.53390 21.91210 33027 ft 509 kts 122°
2026-05-07 12:24 46.50087 22.00055 33028 ft 508 kts 122°
2026-05-07 12:25 46.46753 22.08954 33029 ft 509 kts 122°
2026-05-07 12:25 46.43449 22.17745 33034 ft 509 kts 122°
2026-05-07 12:26 46.40023 22.26834 33034 ft 510 kts 122°
2026-05-07 12:26 46.36619 22.35831 33037 ft 511 kts 122°
2026-05-07 12:27 46.33184 22.44883 33038 ft 510 kts 122°
2026-05-07 12:27 46.29746 22.53912 33035 ft 512 kts 121°
2026-05-07 12:28 46.26296 22.62942 33043 ft 510 kts 121°
2026-05-07 12:28 46.22861 22.71903 33037 ft 511 kts 122°
2026-05-07 12:29 46.19379 22.80956 33035 ft 512 kts 122°
2026-05-07 12:29 46.15917 22.89930 33032 ft 511 kts 122°
2026-05-07 12:30 46.12455 22.98870 33037 ft 513 kts 122°
2026-05-07 12:30 46.08938 23.07927 33044 ft 513 kts 122°
2026-05-07 12:31 46.05452 23.16872 33043 ft 513 kts 122°
2026-05-07 12:31 46.02006 23.25687 33039 ft 513 kts 121°
2026-05-07 12:32 45.98581 23.34421 33036 ft 514 kts 121°
2026-05-07 12:32 45.95058 23.43373 33040 ft 514 kts 121°
2026-05-07 12:33 45.89773 23.56751 33053 ft 516 kts 121°
2026-05-07 12:33 45.86246 23.65643 33057 ft 514 kts 122°
2026-05-07 12:34 45.82745 23.74440 33056 ft 515 kts 122°
2026-05-07 12:34 45.79270 23.83147 33053 ft 515 kts 122°
2026-05-07 12:35 45.75766 23.91899 33061 ft 516 kts 121°
2026-05-07 12:35 45.72249 24.00652 33057 ft 516 kts 121°
2026-05-07 12:36 45.68742 24.09354 33058 ft 516 kts 121°
2026-05-07 12:36 45.65160 24.18214 33057 ft 517 kts 121°
2026-05-07 12:37 45.61558 24.27095 33055 ft 517 kts 121°
2026-05-07 12:37 45.58038 24.35747 33067 ft 516 kts 121°
2026-05-07 12:38 45.54784 24.43721 33083 ft 517 kts 121°
2026-05-07 12:38 45.50894 24.53224 33118 ft 518 kts 121°
2026-05-07 12:39 45.47261 24.62071 33121 ft 517 kts 121°
2026-05-07 12:39 45.43652 24.70831 33113 ft 518 kts 121°
2026-05-07 12:40 45.40002 24.79661 33111 ft 518 kts 121°
2026-05-07 12:40 45.36360 24.88445 33101 ft 518 kts 121°
2026-05-07 12:41 45.32746 24.97137 33092 ft 518 kts 121°
2026-05-07 12:41 45.29066 25.05958 33082 ft 518 kts 121°
2026-05-07 12:42 45.25393 25.14733 33090 ft 518 kts 121°
2026-05-07 12:42 45.21687 25.23562 33094 ft 520 kts 121°
2026-05-07 12:43 45.17984 25.32356 33094 ft 521 kts 121°
2026-05-07 12:43 45.14305 25.41064 33101 ft 520 kts 121°
2026-05-07 12:44 45.10663 25.49660 33091 ft 522 kts 121°
2026-05-07 12:44 45.07024 25.58221 33092 ft 521 kts 121°
2026-05-07 12:45 45.03289 25.66980 33089 ft 523 kts 121°
2026-05-07 12:45 44.99554 25.75715 33084 ft 523 kts 121°
2026-05-07 12:46 44.95756 25.84569 33087 ft 523 kts 121°
2026-05-07 12:46 44.92026 25.93237 33089 ft 524 kts 121°
2026-05-07 12:47 44.88300 26.01870 33080 ft 524 kts 121°
2026-05-07 12:47 44.84509 26.10625 33078 ft 524 kts 121°
2026-05-07 12:48 44.80710 26.19374 33077 ft 524 kts 121°
2026-05-07 12:48 44.76913 26.28091 33078 ft 523 kts 121°
2026-05-07 12:49 44.73115 26.36781 33077 ft 523 kts 121°
2026-05-07 12:49 44.69356 26.45360 33077 ft 523 kts 121°
2026-05-07 12:50 44.65514 26.54097 33076 ft 525 kts 120°
2026-05-07 12:50 44.61692 26.62766 33078 ft 523 kts 120°
2026-05-07 12:51 44.57876 26.71395 33072 ft 523 kts 121°
2026-05-07 12:51 44.54037 26.80049 33072 ft 525 kts 121°
2026-05-07 12:52 44.50201 26.88668 33074 ft 525 kts 121°
2026-05-07 12:52 44.46347 26.97304 33075 ft 524 kts 121°
2026-05-07 12:53 44.42480 27.05943 33079 ft 526 kts 121°
2026-05-07 12:53 44.38621 27.14537 33082 ft 523 kts 121°
2026-05-07 12:54 44.34733 27.23171 33081 ft 525 kts 121°
2026-05-07 12:54 44.30861 27.31744 33085 ft 524 kts 121°
2026-05-07 12:55 44.26959 27.40357 33087 ft 524 kts 121°
2026-05-07 12:55 44.23094 27.48862 33091 ft 523 kts 121°
2026-05-07 12:56 44.19214 27.57378 33094 ft 524 kts 121°
2026-05-07 12:56 44.15321 27.65895 33098 ft 524 kts 121°
2026-05-07 12:57 44.11440 27.74361 33098 ft 523 kts 121°
2026-05-07 12:57 44.07521 27.82884 33100 ft 524 kts 121°
2026-05-07 12:58 44.03594 27.91400 33099 ft 524 kts 121°
2026-05-07 12:58 43.99629 27.99975 33102 ft 524 kts 121°
2026-05-07 12:59 43.95690 28.08467 33104 ft 525 kts 121°
2026-05-07 12:59 43.91707 28.17030 33107 ft 524 kts 121°
2026-05-07 13:00 43.87723 28.25567 33105 ft 525 kts 121°
2026-05-07 13:00 43.83749 28.34060 33110 ft 524 kts 121°
2026-05-07 13:01 43.79762 28.42556 33115 ft 523 kts 121°
2026-05-07 13:01 43.75782 28.51013 33119 ft 524 kts 121°
2026-05-07 13:02 43.71783 28.59483 33119 ft 524 kts 121°
2026-05-07 13:02 43.67805 28.67888 33125 ft 523 kts 121°
2026-05-07 13:03 43.63805 28.76313 33123 ft 525 kts 121°
2026-05-07 13:03 43.59785 28.84755 33129 ft 523 kts 121°
2026-05-07 13:04 43.55736 28.93236 33131 ft 524 kts 121°
2026-05-07 13:04 43.51713 29.01637 33135 ft 524 kts 121°
2026-05-07 13:05 43.47706 29.09980 33138 ft 524 kts 121°
2026-05-07 13:05 43.43670 29.18360 33142 ft 525 kts 121°
2026-05-07 13:06 43.39635 29.26714 33141 ft 525 kts 121°
2026-05-07 13:06 43.35600 29.35044 33143 ft 525 kts 121°
2026-05-07 13:07 43.31522 29.43441 33143 ft 525 kts 121°
2026-05-07 13:07 43.27452 29.51797 33145 ft 526 kts 121°
2026-05-07 13:08 43.23384 29.60125 33145 ft 526 kts 121°
2026-05-07 13:08 43.19302 29.68457 33142 ft 526 kts 121°
2026-05-07 13:09 43.15235 29.76736 33141 ft 526 kts 121°
2026-05-07 13:09 43.11107 29.85115 33144 ft 526 kts 121°
2026-05-07 13:10 43.07010 29.93409 33145 ft 527 kts 121°
2026-05-07 13:10 43.02906 30.01692 33142 ft 526 kts 121°
2026-05-07 13:11 42.98791 30.09975 33145 ft 526 kts 121°
2026-05-07 13:11 42.94682 30.18224 33149 ft 526 kts 121°
2026-05-07 13:12 42.90562 30.26469 33149 ft 525 kts 121°
2026-05-07 13:12 42.86456 30.34668 33134 ft 524 kts 121°
2026-05-07 13:13 42.82348 30.42845 33139 ft 523 kts 121°
2026-05-07 13:13 42.78201 30.51077 33140 ft 524 kts 121°
2026-05-07 13:14 42.74371 30.59445 33148 ft 519 kts 110°
2026-05-07 13:14 42.72289 30.68738 33136 ft 508 kts 93°
2026-05-07 13:15 42.71579 30.78208 33144 ft 506 kts 91°
2026-05-07 13:15 42.70808 30.87713 33146 ft 505 kts 92°
2026-05-07 13:16 42.69935 30.97247 33148 ft 505 kts 92°
2026-05-07 13:16 42.69015 31.06651 33148 ft 504 kts 93°
2026-05-07 13:17 42.68056 31.16106 33149 ft 503 kts 93°
2026-05-07 13:17 42.67080 31.25502 33153 ft 504 kts 94°
2026-05-07 13:18 42.66082 31.34960 33149 ft 501 kts 94°
2026-05-07 13:18 42.65081 31.44335 33150 ft 503 kts 94°
2026-05-07 13:19 42.64064 31.53755 33151 ft 501 kts 94°
2026-05-07 13:19 42.63039 31.63174 33150 ft 500 kts 94°
2026-05-07 13:20 42.62014 31.72510 33146 ft 501 kts 95°
2026-05-07 13:20 42.60976 31.81890 33150 ft 499 kts 95°
2026-05-07 13:21 42.59932 31.91251 33147 ft 500 kts 95°
2026-05-07 13:21 42.58885 32.00562 33148 ft 498 kts 95°
2026-05-07 13:22 42.57841 32.09921 33154 ft 498 kts 95°
2026-05-07 13:22 42.56777 32.19245 33147 ft 498 kts 95°
2026-05-07 13:23 42.55709 32.28538 33149 ft 498 kts 95°
2026-05-07 13:23 42.54634 32.37816 33151 ft 497 kts 95°
2026-05-07 13:24 42.53551 32.47094 33153 ft 496 kts 95°
2026-05-07 13:24 42.52463 32.56360 33155 ft 498 kts 95°
2026-05-07 13:25 42.51375 32.65545 33148 ft 496 kts 96°
2026-05-07 13:25 42.50267 32.74849 33149 ft 497 kts 96°
2026-05-07 13:26 42.49161 32.84058 33153 ft 496 kts 96°
2026-05-07 13:26 42.48044 32.93297 33149 ft 496 kts 96°
2026-05-07 13:27 42.46920 33.02535 33152 ft 496 kts 96°
2026-05-07 13:27 42.45791 33.11739 33150 ft 496 kts 96°
2026-05-07 13:28 42.44653 33.20950 33153 ft 495 kts 96°
2026-05-07 13:28 42.43509 33.30139 33149 ft 496 kts 96°
2026-05-07 13:29 42.42355 33.39348 33155 ft 495 kts 95°
2026-05-07 13:29 42.41191 33.48583 33151 ft 495 kts 95°
2026-05-07 13:30 42.40029 33.57747 33151 ft 495 kts 95°
2026-05-07 13:30 42.38858 33.66914 33152 ft 494 kts 96°
2026-05-07 13:31 42.37673 33.76129 33150 ft 494 kts 96°
2026-05-07 13:31 42.36484 33.85320 33153 ft 493 kts 96°
2026-05-07 13:32 42.35299 33.94431 33157 ft 493 kts 95°
2026-05-07 13:32 42.34102 34.03602 33156 ft 492 kts 95°
2026-05-07 13:33 42.32898 34.12769 33152 ft 494 kts 95°
2026-05-07 13:33 42.31696 34.21848 33152 ft 492 kts 95°
2026-05-07 13:34 42.29861 34.35619 33153 ft 494 kts 95°
2026-05-07 13:35 42.28632 34.44757 33154 ft 493 kts 96°
2026-05-07 13:35 42.27394 34.53892 33152 ft 493 kts 95°
2026-05-07 13:36 42.26152 34.63008 33156 ft 494 kts 96°
2026-05-07 13:36 42.24896 34.72163 33149 ft 495 kts 96°
2026-05-07 13:37 42.23636 34.81292 33157 ft 494 kts 96°
2026-05-07 13:37 42.22368 34.90406 33150 ft 494 kts 96°
2026-05-07 13:38 42.21090 34.99526 33152 ft 494 kts 97°
2026-05-07 13:38 42.19812 35.08599 33157 ft 492 kts 97°
2026-05-07 13:39 42.18520 35.17709 33154 ft 493 kts 97°
2026-05-07 13:39 42.17230 35.26759 33163 ft 491 kts 97°
2026-05-07 13:40 42.15928 35.35839 33168 ft 491 kts 97°
2026-05-07 13:40 42.14621 35.44902 33171 ft 489 kts 97°
2026-05-07 13:41 42.13316 35.53921 33178 ft 489 kts 97°
2026-05-07 13:41 42.12011 35.62881 33182 ft 488 kts 97°
2026-05-07 13:42 42.10693 35.71887 33179 ft 488 kts 98°
2026-05-07 13:42 42.09376 35.80832 33189 ft 487 kts 98°
2026-05-07 13:43 42.08057 35.89740 33197 ft 486 kts 98°
2026-05-07 13:43 42.06723 35.98692 33200 ft 486 kts 98°
2026-05-07 13:44 42.05389 36.07601 33199 ft 485 kts 98°
2026-05-07 13:44 42.04046 36.16523 33201 ft 485 kts 98°
2026-05-07 13:45 42.02694 36.25448 33197 ft 485 kts 98°
2026-05-07 13:45 42.01336 36.34363 33200 ft 485 kts 98°
2026-05-07 13:46 41.99970 36.43288 33204 ft 485 kts 98°
2026-05-07 13:46 41.98606 36.52146 33209 ft 484 kts 98°
2026-05-07 13:47 41.97229 36.61042 33199 ft 485 kts 98°
2026-05-07 13:47 41.95860 36.69840 33199 ft 485 kts 99°
2026-05-07 13:48 41.94474 36.78694 33201 ft 484 kts 99°
2026-05-07 13:48 41.93076 36.87580 33195 ft 485 kts 99°
2026-05-07 13:49 41.91685 36.96380 33194 ft 483 kts 99°
2026-05-07 13:49 41.90425 37.05258 33187 ft 480 kts 92°
2026-05-07 13:50 41.90222 37.14201 33198 ft 479 kts 88°
2026-05-07 13:50 41.90109 37.23108 33195 ft 479 kts 88°
2026-05-07 13:51 41.89979 37.32143 33188 ft 479 kts 88°
2026-05-07 13:51 41.89840 37.41081 33187 ft 478 kts 88°
2026-05-07 13:52 41.89692 37.49990 33194 ft 479 kts 88°
2026-05-07 13:52 41.89536 37.58932 33182 ft 478 kts 88°
2026-05-07 13:53 41.89372 37.67827 33181 ft 479 kts 89°
2026-05-07 13:53 41.89201 37.76771 33185 ft 478 kts 89°
2026-05-07 13:54 41.89022 37.85744 33190 ft 479 kts 89°
2026-05-07 13:54 41.88837 37.94650 33183 ft 478 kts 89°
2026-05-07 13:55 41.88645 38.03581 33196 ft 478 kts 89°
2026-05-07 13:55 41.88444 38.12567 33190 ft 480 kts 89°
2026-05-07 13:56 41.88239 38.21478 33186 ft 480 kts 90°
2026-05-07 13:56 41.88024 38.30484 33202 ft 480 kts 89°
2026-05-07 13:57 41.87804 38.39415 33197 ft 481 kts 90°
2026-05-07 13:57 41.87576 38.48362 33200 ft 481 kts 90°
2026-05-07 13:58 41.87342 38.57323 33190 ft 481 kts 90°
2026-05-07 13:58 41.87100 38.66282 33188 ft 482 kts 90°
2026-05-07 13:59 41.86849 38.75322 33202 ft 482 kts 90°
2026-05-07 13:59 41.86592 38.84320 33205 ft 482 kts 90°
2026-05-07 14:00 41.86329 38.93288 33203 ft 483 kts 91°
2026-05-07 14:00 41.86061 39.02197 33209 ft 483 kts 91°
2026-05-07 14:01 41.85782 39.11223 33205 ft 484 kts 91°
2026-05-07 14:01 41.85498 39.20177 33206 ft 484 kts 91°
2026-05-07 14:02 41.85208 39.29121 33203 ft 483 kts 91°
2026-05-07 14:02 41.84909 39.38112 33200 ft 484 kts 91°
2026-05-07 14:03 41.84602 39.47150 33206 ft 484 kts 91°
2026-05-07 14:03 41.84288 39.56192 33206 ft 485 kts 91°
2026-05-07 14:04 41.83970 39.65151 33209 ft 484 kts 91°
2026-05-07 14:04 41.83645 39.74101 33217 ft 485 kts 92°
2026-05-07 14:05 41.83313 39.83067 33210 ft 484 kts 92°
2026-05-07 14:05 41.82971 39.92122 33222 ft 484 kts 92°
2026-05-07 14:06 41.82627 40.01024 33206 ft 484 kts 92°
2026-05-07 14:06 41.82271 40.10077 33206 ft 486 kts 92°
2026-05-07 14:07 41.81908 40.19078 33211 ft 487 kts 92°
2026-05-07 14:07 41.81536 40.28118 33208 ft 489 kts 92°
2026-05-07 14:08 41.81157 40.37184 33209 ft 490 kts 92°
2026-05-07 14:08 41.80768 40.46288 33207 ft 491 kts 92°
2026-05-07 14:09 41.80372 40.55396 33202 ft 491 kts 92°
2026-05-07 14:09 41.79968 40.64521 33206 ft 492 kts 92°
2026-05-07 14:10 41.79543 40.73534 33205 ft 494 kts 93°
2026-05-07 14:10 41.79094 40.82668 33201 ft 493 kts 93°
2026-05-07 14:11 41.78642 40.91740 33194 ft 491 kts 93°
2026-05-07 14:11 41.78180 41.00877 33192 ft 494 kts 94°
2026-05-07 14:12 41.77725 41.09746 33190 ft 493 kts 94°
2026-05-07 14:12 41.77244 41.18996 33187 ft 496 kts 94°
2026-05-07 14:13 41.76760 41.28140 33188 ft 496 kts 94°
2026-05-07 14:13 41.76270 41.37270 33185 ft 496 kts 94°
2026-05-07 14:14 41.75775 41.46366 33182 ft 497 kts 94°
2026-05-07 14:14 41.75269 41.55512 33183 ft 497 kts 94°
2026-05-07 14:15 41.74764 41.64526 33185 ft 498 kts 94°
2026-05-07 14:15 41.74240 41.73747 33180 ft 497 kts 95°
2026-05-07 14:16 41.73703 41.83049 33182 ft 498 kts 95°
2026-05-07 14:16 41.73162 41.92305 33186 ft 498 kts 95°
2026-05-07 14:17 41.72622 42.01426 33172 ft 498 kts 95°
2026-05-07 14:17 41.72078 42.10473 33170 ft 499 kts 95°
2026-05-07 14:18 41.71513 42.19733 33154 ft 498 kts 95°
2026-05-07 14:18 41.70938 42.29022 33151 ft 499 kts 95°
2026-05-07 14:19 41.70370 42.38103 33141 ft 502 kts 96°
2026-05-07 14:19 41.69783 42.47350 33138 ft 501 kts 96°
2026-05-07 14:20 41.69193 42.56531 33141 ft 504 kts 96°
2026-05-07 14:20 41.68608 42.65526 33144 ft 504 kts 97°
2026-05-07 14:21 41.68001 42.74742 33138 ft 504 kts 97°
2026-05-07 14:21 41.67391 42.83887 33142 ft 505 kts 97°
2026-05-07 14:22 41.66758 42.93243 33141 ft 505 kts 97°
2026-05-07 14:22 41.66116 43.02618 33144 ft 506 kts 97°
2026-05-07 14:23 41.65464 43.12008 33146 ft 505 kts 97°
2026-05-07 14:23 41.64800 43.21469 33159 ft 509 kts 97°
2026-05-07 14:24 41.64133 43.30854 33162 ft 508 kts 97°
2026-05-07 14:24 41.63464 43.40162 33158 ft 509 kts 97°
2026-05-07 14:25 41.62791 43.49409 33157 ft 510 kts 98°
2026-05-07 14:25 41.62112 43.58698 33151 ft 512 kts 98°
2026-05-07 14:26 41.61432 43.67908 33139 ft 513 kts 98°
2026-05-07 14:26 41.60720 43.77441 33130 ft 512 kts 98°
2026-05-07 14:27 41.60005 43.86911 33132 ft 514 kts 98°
2026-05-07 14:27 41.59273 43.96487 33135 ft 515 kts 99°
2026-05-07 14:28 41.58535 44.06056 33141 ft 515 kts 98°
2026-05-07 14:28 41.57789 44.15608 33169 ft 517 kts 99°
2026-05-07 14:29 41.56651 44.25075 33157 ft 511 kts 110°
2026-05-07 14:29 41.54474 44.34147 33168 ft 510 kts 112°
2026-05-07 14:30 41.52238 44.43194 33159 ft 511 kts 112°
2026-05-07 14:30 41.49985 44.52267 33156 ft 512 kts 112°
2026-05-07 14:31 41.47742 44.61264 33153 ft 511 kts 112°
2026-05-07 14:31 41.45472 44.70333 33143 ft 512 kts 113°
2026-05-07 14:32 41.43218 44.79305 33135 ft 511 kts 113°
2026-05-07 14:32 41.40926 44.88385 33136 ft 514 kts 113°
2026-05-07 14:33 41.38672 44.97287 33136 ft 514 kts 113°
2026-05-07 14:33 41.36392 45.06253 33139 ft 514 kts 113°
2026-05-07 14:34 41.34110 45.15193 33133 ft 514 kts 113°
2026-05-07 14:34 41.31818 45.24132 33124 ft 516 kts 113°
2026-05-07 14:35 41.29519 45.33068 33122 ft 515 kts 114°
2026-05-07 14:35 41.27179 45.42127 33116 ft 516 kts 114°
2026-05-07 14:36 41.24832 45.51182 33114 ft 516 kts 114°
2026-05-07 14:36 41.22482 45.60212 33119 ft 517 kts 114°
2026-05-07 14:37 41.20105 45.69306 33120 ft 516 kts 114°
2026-05-07 14:37 41.16523 45.82900 33115 ft 517 kts 114°
2026-05-07 14:38 41.14139 45.91907 33105 ft 517 kts 114°
2026-05-07 14:38 41.11742 46.00931 33096 ft 518 kts 114°
2026-05-07 14:39 41.09330 46.09977 33093 ft 518 kts 114°
2026-05-07 14:39 41.06947 46.18882 33089 ft 519 kts 114°
2026-05-07 14:40 41.04548 46.27818 33091 ft 517 kts 114°
2026-05-07 14:40 41.02203 46.36579 33100 ft 519 kts 114°
2026-05-07 14:41 40.99799 46.45575 33101 ft 519 kts 114°
2026-05-07 14:41 40.97464 46.54282 33096 ft 519 kts 114°
2026-05-07 14:42 40.95070 46.63172 33097 ft 519 kts 114°
2026-05-07 14:42 40.92652 46.72119 33094 ft 518 kts 115°
2026-05-07 14:43 40.90260 46.80934 33091 ft 519 kts 115°
2026-05-07 14:43 40.87832 46.89829 33098 ft 519 kts 115°
2026-05-07 14:44 40.85390 46.98726 33098 ft 519 kts 115°
2026-05-07 14:44 40.82929 47.07665 33107 ft 520 kts 115°
2026-05-07 14:45 40.80465 47.16580 33112 ft 519 kts 115°
2026-05-07 14:45 40.78051 47.25230 33117 ft 519 kts 115°
2026-05-07 14:46 40.75612 47.33935 33124 ft 521 kts 115°
2026-05-07 14:46 40.73119 47.42810 33130 ft 521 kts 115°
2026-05-07 14:47 40.70676 47.51508 33135 ft 522 kts 115°
2026-05-07 14:47 40.68172 47.60392 33133 ft 522 kts 115°
2026-05-07 14:48 40.65653 47.69302 33126 ft 520 kts 116°
2026-05-07 14:48 40.63155 47.78101 33122 ft 521 kts 116°
2026-05-07 14:49 40.60644 47.86917 33126 ft 522 kts 116°
2026-05-07 14:49 40.58109 47.95788 33123 ft 522 kts 116°
2026-05-07 14:50 40.55843 48.04875 33118 ft 527 kts 113°
2026-05-07 14:50 40.53635 48.13974 33113 ft 525 kts 113°
2026-05-07 14:51 40.51429 48.22998 33107 ft 526 kts 113°
2026-05-07 14:51 40.49185 48.32123 33104 ft 526 kts 113°
2026-05-07 14:52 40.46963 48.41106 33102 ft 526 kts 113°
2026-05-07 14:52 40.44704 48.50194 33102 ft 526 kts 113°
2026-05-07 14:53 40.42455 48.59203 33111 ft 527 kts 113°
2026-05-07 14:53 40.40205 48.68178 33104 ft 525 kts 114°
2026-05-07 14:54 40.37896 48.77352 33102 ft 527 kts 114°
2026-05-07 14:54 40.35605 48.86420 33109 ft 526 kts 114°
2026-05-07 14:55 40.33297 48.95517 33114 ft 526 kts 114°
2026-05-07 14:55 40.30981 49.04613 33115 ft 527 kts 114°
2026-05-07 14:56 40.28629 49.13736 33113 ft 527 kts 114°
2026-05-07 14:56 40.26279 49.22783 33219 ft 533 kts 114°
2026-05-07 14:57 40.25086 49.27396 33633 ft 531 kts 114°
2026-05-07 14:57 40.23907 49.31963 34121 ft 527 kts 114°
2026-05-07 14:57 40.22735 49.36491 34529 ft 524 kts 114°
2026-05-07 14:57 40.21570 49.40983 34818 ft 524 kts 114°
2026-05-07 14:58 40.20412 49.45435 35037 ft 525 kts 114°
2026-05-07 14:58 40.19304 49.49891 35081 ft 532 kts 110°
2026-05-07 14:58 40.18109 49.59558 35073 ft 537 kts 101°
2026-05-07 14:59 40.17239 49.69229 35059 ft 537 kts 102°
2026-05-07 14:59 40.16345 49.79017 35060 ft 538 kts 102°
2026-05-07 15:00 40.15448 49.88688 35065 ft 538 kts 102°
2026-05-07 15:00 40.14541 49.98340 35066 ft 538 kts 102°
2026-05-07 15:01 40.13623 50.07999 35069 ft 540 kts 102°
2026-05-07 15:01 40.12700 50.17632 35069 ft 541 kts 102°
2026-05-07 15:02 40.11756 50.27379 35070 ft 539 kts 102°
2026-05-07 15:02 40.10798 50.37185 35070 ft 540 kts 102°
2026-05-07 15:03 40.09834 50.46949 35072 ft 541 kts 102°
2026-05-07 15:03 40.08862 50.56725 35073 ft 542 kts 102°
2026-05-07 15:04 40.07886 50.66449 35070 ft 542 kts 103°
2026-05-07 15:04 40.06896 50.76225 35062 ft 542 kts 102°
2026-05-07 15:05 40.05902 50.85960 35063 ft 541 kts 103°
2026-05-07 15:05 40.04898 50.95710 35063 ft 543 kts 103°
2026-05-07 15:06 40.03888 51.05442 35064 ft 542 kts 103°
2026-05-07 15:06 40.02865 51.15203 35066 ft 544 kts 103°
2026-05-07 15:07 40.01833 51.24981 35066 ft 543 kts 103°
2026-05-07 15:07 40.00790 51.34770 35068 ft 545 kts 103°
2026-05-07 15:08 39.99743 51.44529 35070 ft 545 kts 103°
2026-05-07 15:08 39.98351 51.54248 35073 ft 542 kts 109°
2026-05-07 15:09 39.96584 51.63754 35073 ft 541 kts 109°
2026-05-07 15:09 39.94797 51.73288 35058 ft 540 kts 110°
2026-05-07 15:10 39.93009 51.82780 35059 ft 542 kts 110°
2026-05-07 15:10 39.91199 51.92350 35060 ft 541 kts 110°
2026-05-07 15:11 39.89397 52.01824 35072 ft 543 kts 110°
2026-05-07 15:11 39.87577 52.11355 35073 ft 542 kts 110°
2026-05-07 15:12 39.85755 52.20846 35069 ft 541 kts 110°
2026-05-07 15:12 39.83921 52.30356 35069 ft 542 kts 109°
2026-05-07 15:13 39.82083 52.39842 35074 ft 543 kts 110°
2026-05-07 15:13 39.80242 52.49298 35070 ft 542 kts 109°
2026-05-07 15:14 39.78372 52.58859 35071 ft 542 kts 109°
2026-05-07 15:14 39.76523 52.68266 35057 ft 541 kts 110°
2026-05-07 15:15 39.74647 52.77770 35056 ft 542 kts 110°
2026-05-07 15:15 39.72782 52.87214 35055 ft 542 kts 110°
2026-05-07 15:16 39.70946 52.96684 35056 ft 541 kts 109°
2026-05-07 15:16 39.69093 53.06193 35059 ft 541 kts 109°
2026-05-07 15:17 39.67291 53.15396 35056 ft 541 kts 110°
2026-05-07 15:17 39.65470 53.24652 35052 ft 540 kts 109°
2026-05-07 15:18 39.63598 53.34113 35054 ft 542 kts 109°
2026-05-07 15:18 39.61707 53.43632 35050 ft 540 kts 109°
2026-05-07 15:19 39.59812 53.53125 35050 ft 540 kts 109°
2026-05-07 15:19 39.57927 53.62521 35047 ft 540 kts 109°
2026-05-07 15:20 39.56019 53.71992 35031 ft 539 kts 110°
2026-05-07 15:20 39.54113 53.81406 35025 ft 539 kts 110°
2026-05-07 15:21 39.52189 53.90870 35031 ft 540 kts 110°
2026-05-07 15:21 39.50275 54.00241 35026 ft 540 kts 110°
2026-05-07 15:22 39.48323 54.09682 35024 ft 538 kts 110°
2026-05-07 15:22 39.46352 54.19108 35021 ft 539 kts 110°
2026-05-07 15:23 39.44383 54.28489 35023 ft 539 kts 110°
2026-05-07 15:23 39.42406 54.37871 35027 ft 538 kts 110°
2026-05-07 15:24 39.40424 54.47237 35030 ft 539 kts 110°
2026-05-07 15:24 39.38430 54.56618 35030 ft 538 kts 110°
2026-05-07 15:25 39.36422 54.66029 35027 ft 537 kts 110°
2026-05-07 15:25 39.34432 54.75312 35018 ft 537 kts 110°
2026-05-07 15:26 39.32423 54.84638 35015 ft 537 kts 110°
2026-05-07 15:26 39.31570 54.88593 35014 ft 537 kts 110°
2026-05-07 15:27 39.28788 55.01420 35017 ft 538 kts 110°
2026-05-07 15:27 39.26757 55.10745 35023 ft 537 kts 110°
2026-05-07 15:28 39.24743 55.19952 35013 ft 536 kts 110°
2026-05-07 15:28 39.22712 55.29198 35019 ft 536 kts 110°
2026-05-07 15:29 39.20649 55.38545 35017 ft 535 kts 110°
2026-05-07 15:29 39.18610 55.47747 35030 ft 535 kts 110°
2026-05-07 15:30 39.16549 55.57010 35032 ft 536 kts 110°
2026-05-07 15:30 39.14498 55.66178 35038 ft 535 kts 111°
2026-05-07 15:31 39.12436 55.75351 35032 ft 536 kts 111°
2026-05-07 15:31 39.10357 55.84561 35035 ft 535 kts 111°
2026-05-07 15:32 39.08266 55.93789 35040 ft 534 kts 111°
2026-05-07 15:32 39.06231 56.02735 35050 ft 534 kts 111°
2026-05-07 15:33 39.04180 56.11715 35036 ft 535 kts 111°
2026-05-07 15:33 39.02108 56.20751 35027 ft 532 kts 111°
2026-05-07 15:34 39.00037 56.29748 35010 ft 533 kts 111°
2026-05-07 15:34 38.97661 56.38749 35007 ft 531 kts 114°
2026-05-07 15:35 38.95181 56.47666 35020 ft 530 kts 114°
2026-05-07 15:35 38.92726 56.56515 35024 ft 529 kts 114°
2026-05-07 15:36 38.90258 56.65408 35032 ft 531 kts 114°
2026-05-07 15:36 38.87791 56.74291 35004 ft 528 kts 115°
2026-05-07 15:37 38.85321 56.83157 35000 ft 531 kts 114°
2026-05-07 15:37 38.82944 56.91670 34995 ft 529 kts 114°
2026-05-07 15:38 38.80413 57.00707 34999 ft 528 kts 114°
2026-05-07 15:38 38.77923 57.09565 34993 ft 529 kts 114°
2026-05-07 15:39 38.75422 57.18436 34991 ft 528 kts 114°
2026-05-07 15:39 38.72927 57.27258 34996 ft 528 kts 114°
2026-05-07 15:40 38.70417 57.36102 34997 ft 528 kts 114°
2026-05-07 15:40 38.67890 57.44975 34997 ft 528 kts 114°
2026-05-07 15:41 38.65375 57.53777 34982 ft 527 kts 114°
2026-05-07 15:41 38.62851 57.62584 35005 ft 526 kts 114°
2026-05-07 15:42 38.60182 57.71297 34992 ft 521 kts 118°
2026-05-07 15:42 38.57187 57.79724 34991 ft 524 kts 119°
2026-05-07 15:43 38.54187 57.88189 34993 ft 523 kts 118°
2026-05-07 15:43 38.51201 57.96635 34982 ft 522 kts 118°
2026-05-07 15:44 38.48229 58.05044 34977 ft 521 kts 118°
2026-05-07 15:44 38.45262 58.13424 34983 ft 522 kts 118°
2026-05-07 15:45 38.42261 58.21890 34984 ft 522 kts 118°
2026-05-07 15:45 38.39071 58.30222 34982 ft 517 kts 124°
2026-05-07 15:46 38.33519 58.42055 34971 ft 518 kts 125°
2026-05-07 15:47 38.29786 58.49961 34968 ft 518 kts 125°
2026-05-07 15:47 38.26094 58.57767 34972 ft 518 kts 125°
2026-05-07 15:48 38.22334 58.65698 34956 ft 518 kts 126°
2026-05-07 15:48 38.18604 58.73550 34953 ft 518 kts 126°
2026-05-07 15:49 38.14879 58.81370 34949 ft 518 kts 126°
2026-05-07 15:49 38.11133 58.89219 34949 ft 517 kts 126°
2026-05-07 15:50 38.07376 58.97069 34941 ft 519 kts 126°
2026-05-07 15:50 38.05487 59.01009 35077 ft 518 kts 126°
2026-05-07 15:50 38.03627 59.04887 34826 ft 515 kts 126°
2026-05-07 15:51 37.99857 59.12723 34972 ft 523 kts 126°
2026-05-07 15:51 37.96105 59.20512 34932 ft 514 kts 126°
2026-05-07 15:52 37.92359 59.28263 34929 ft 519 kts 125°
2026-05-07 15:52 37.88503 59.35943 34934 ft 516 kts 130°
2026-05-07 15:53 37.84185 59.43182 34937 ft 517 kts 131°
2026-05-07 15:53 37.79820 59.50432 34932 ft 517 kts 131°
2026-05-07 15:54 37.75446 59.57683 34943 ft 516 kts 131°
2026-05-07 15:54 37.71068 59.64924 34941 ft 519 kts 131°
2026-05-07 15:55 37.66710 59.72121 34929 ft 518 kts 132°
2026-05-07 15:55 37.62324 59.79344 34930 ft 519 kts 132°
2026-05-07 15:56 37.57912 59.86599 34942 ft 519 kts 132°
2026-05-07 15:56 37.53472 59.93882 34939 ft 521 kts 132°
2026-05-07 15:57 37.49032 60.01150 34941 ft 522 kts 132°
2026-05-07 15:57 37.44629 60.08341 34924 ft 521 kts 132°
2026-05-07 15:58 37.40181 60.15590 34923 ft 522 kts 132°
2026-05-07 15:58 37.35740 60.22810 34935 ft 523 kts 132°
2026-05-07 15:59 37.31294 60.30026 34931 ft 524 kts 132°
2026-05-07 15:59 37.26793 60.37313 34923 ft 523 kts 132°
2026-05-07 16:00 37.22310 60.44555 34919 ft 524 kts 131°
2026-05-07 16:00 37.17825 60.51785 34927 ft 526 kts 131°
2026-05-07 16:01 37.13335 60.59008 34928 ft 525 kts 131°
2026-05-07 16:01 37.08863 60.66185 34920 ft 527 kts 132°
2026-05-07 16:02 37.04314 60.73472 34916 ft 527 kts 132°
2026-05-07 16:02 36.99746 60.80772 34927 ft 531 kts 132°
2026-05-07 16:03 36.95277 60.88128 34903 ft 530 kts 129°
2026-05-07 16:03 36.91074 60.95687 34905 ft 531 kts 128°
2026-05-07 16:04 36.86829 61.03285 34912 ft 533 kts 128°
2026-05-07 16:04 36.82570 61.10869 34920 ft 532 kts 128°
2026-05-07 16:05 36.78285 61.18464 34909 ft 531 kts 128°
2026-05-07 16:05 36.73996 61.26040 34913 ft 533 kts 128°
2026-05-07 16:06 36.69717 61.33579 34913 ft 531 kts 128°
2026-05-07 16:06 36.65409 61.41149 34915 ft 533 kts 129°
2026-05-07 16:07 36.61092 61.48694 34923 ft 532 kts 129°
2026-05-07 16:07 36.56705 61.56175 34924 ft 533 kts 129°
2026-05-07 16:08 36.52342 61.63596 34932 ft 533 kts 129°
2026-05-07 16:08 36.47969 61.71022 34921 ft 532 kts 130°
2026-05-07 16:09 36.43597 61.78433 34934 ft 534 kts 130°
2026-05-07 16:09 36.39198 61.85877 34935 ft 532 kts 130°
2026-05-07 16:10 36.34828 61.93256 34941 ft 535 kts 130°
2026-05-07 16:10 36.30427 62.00672 34946 ft 533 kts 130°
2026-05-07 16:11 36.25975 62.08156 34953 ft 536 kts 130°
2026-05-07 16:11 36.21539 62.15597 34958 ft 534 kts 130°
2026-05-07 16:12 36.17151 62.22944 34966 ft 534 kts 129°
2026-05-07 16:12 36.12696 62.30386 34961 ft 534 kts 130°
2026-05-07 16:13 36.08273 62.37757 34957 ft 537 kts 130°
2026-05-07 16:13 36.03859 62.45100 34951 ft 535 kts 129°
2026-05-07 16:14 35.99401 62.52497 34945 ft 536 kts 129°
2026-05-07 16:14 35.94921 62.59919 34937 ft 536 kts 130°
2026-05-07 16:15 35.90496 62.67230 34941 ft 536 kts 130°
2026-05-07 16:15 35.86022 62.74609 34935 ft 535 kts 130°
2026-05-07 16:16 35.81541 62.81984 34949 ft 536 kts 130°
2026-05-07 16:16 35.77043 62.89369 34946 ft 536 kts 130°
2026-05-07 16:17 35.72581 62.96681 34942 ft 536 kts 130°
2026-05-07 16:17 35.68106 63.03998 34944 ft 538 kts 130°
2026-05-07 16:18 35.63610 63.11334 34966 ft 536 kts 130°
2026-05-07 16:18 35.59084 63.18703 34976 ft 536 kts 129°
2026-05-07 16:19 35.54561 63.25981 35002 ft 537 kts 130°
2026-05-07 16:19 35.49983 63.33283 35016 ft 537 kts 130°
2026-05-07 16:20 35.45435 63.40525 35036 ft 537 kts 130°
2026-05-07 16:20 35.40899 63.47735 35058 ft 537 kts 130°
2026-05-07 16:21 35.36392 63.54886 35058 ft 536 kts 130°
2026-05-07 16:21 35.31901 63.61997 35082 ft 537 kts 130°
2026-05-07 16:22 35.27459 63.69035 35078 ft 536 kts 130°
2026-05-07 16:22 35.22935 63.76217 35076 ft 538 kts 130°
2026-05-07 16:23 35.18444 63.83333 35134 ft 537 kts 130°
2026-05-07 16:23 35.13881 63.90546 35187 ft 538 kts 130°
2026-05-07 16:24 35.09406 63.97607 35207 ft 536 kts 130°
2026-05-07 16:24 35.04794 64.04867 35216 ft 538 kts 130°
2026-05-07 16:25 35.00169 64.12133 35227 ft 538 kts 130°
2026-05-07 16:25 34.95558 64.19362 35286 ft 537 kts 130°
2026-05-07 16:26 34.90936 64.26594 35360 ft 540 kts 130°
2026-05-07 16:26 34.86339 64.33771 35379 ft 538 kts 129°
2026-05-07 16:27 34.81707 64.40988 35400 ft 538 kts 130°
2026-05-07 16:27 34.77083 64.48180 35431 ft 540 kts 130°
2026-05-07 16:28 34.72413 64.55425 35439 ft 539 kts 129°
2026-05-07 16:28 34.67828 64.62528 35481 ft 543 kts 130°
2026-05-07 16:29 34.63166 64.69732 35489 ft 540 kts 130°
2026-05-07 16:29 34.58515 64.76907 35493 ft 540 kts 130°
2026-05-07 16:30 34.53852 64.84083 35500 ft 541 kts 130°
2026-05-07 16:30 34.49226 64.91190 35497 ft 539 kts 130°
2026-05-07 16:31 34.44550 64.98342 35497 ft 541 kts 130°
2026-05-07 16:31 34.39900 65.05437 35513 ft 542 kts 130°
2026-05-07 16:32 34.35177 65.12632 35523 ft 541 kts 130°
2026-05-07 16:32 34.30480 65.19772 35530 ft 541 kts 130°
2026-05-07 16:33 34.25768 65.26919 35535 ft 542 kts 130°
2026-05-07 16:33 34.21014 65.34117 35534 ft 543 kts 130°
2026-05-07 16:34 34.16310 65.41227 35532 ft 541 kts 130°
2026-05-07 16:34 34.11576 65.48366 35531 ft 544 kts 130°
2026-05-07 16:35 34.06836 65.55500 35527 ft 544 kts 130°
2026-05-07 16:35 34.02104 65.62625 35529 ft 544 kts 130°
2026-05-07 16:36 33.97393 65.69709 35513 ft 542 kts 130°
2026-05-07 16:36 33.92657 65.76814 35519 ft 544 kts 130°
2026-05-07 16:37 33.87918 65.83911 35503 ft 543 kts 130°
2026-05-07 16:37 33.83208 65.90951 35511 ft 542 kts 130°
2026-05-07 16:38 33.78420 65.98092 35494 ft 546 kts 130°
2026-05-07 16:38 33.73639 66.05209 35493 ft 545 kts 130°
2026-05-07 16:39 33.68874 66.12289 35479 ft 545 kts 130°
2026-05-07 16:39 33.64097 66.19373 35456 ft 546 kts 130°
2026-05-07 16:40 33.59332 66.26424 35436 ft 545 kts 130°
2026-05-07 16:40 33.54509 66.33546 35433 ft 546 kts 130°
2026-05-07 16:41 33.49726 66.40597 35432 ft 546 kts 130°
2026-05-07 16:41 33.44940 66.47636 35463 ft 546 kts 130°
2026-05-07 16:42 33.40109 66.54697 35502 ft 546 kts 130°
2026-05-07 16:42 33.35348 66.61642 35521 ft 548 kts 130°
2026-05-07 16:43 33.30456 66.68764 35525 ft 546 kts 130°
2026-05-07 16:43 33.25607 66.75810 35529 ft 549 kts 130°
2026-05-07 16:44 33.20719 66.82901 35529 ft 547 kts 131°
2026-05-07 16:44 33.15864 66.89929 35544 ft 548 kts 130°
2026-05-07 16:45 33.10996 66.96963 35562 ft 548 kts 130°
2026-05-07 16:45 33.06163 67.03933 35567 ft 548 kts 130°
2026-05-07 16:46 33.01249 67.11007 35557 ft 550 kts 131°
2026-05-07 16:46 32.96365 67.18024 35508 ft 549 kts 130°
2026-05-07 16:47 32.91470 67.25043 35491 ft 549 kts 130°
2026-05-07 16:47 32.86570 67.32056 35454 ft 549 kts 130°
2026-05-07 16:48 32.81654 67.39078 35431 ft 549 kts 130°
2026-05-07 16:48 32.76764 67.46045 35398 ft 552 kts 131°
2026-05-07 16:49 32.71687 67.52892 35387 ft 550 kts 132°
2026-05-07 16:49 32.66572 67.59734 35366 ft 551 kts 132°
2026-05-07 16:50 32.61513 67.66498 35348 ft 550 kts 133°
2026-05-07 16:50 32.56378 67.73360 35337 ft 552 kts 132°
2026-05-07 16:51 32.51299 67.80138 35337 ft 552 kts 132°
2026-05-07 16:51 32.46296 67.87106 35325 ft 553 kts 130°
2026-05-07 16:51 32.43853 67.90641 35426 ft 559 kts 129°
2026-05-07 16:52 32.41434 67.94135 35653 ft 563 kts 130°
2026-05-07 16:52 32.38922 67.97756 36082 ft 564 kts 130°
2026-05-07 16:52 32.36439 68.01327 36500 ft 564 kts 130°
2026-05-07 16:52 32.33930 68.04929 36808 ft 567 kts 130°
2026-05-07 16:53 32.31439 68.08498 37081 ft 569 kts 130°
2026-05-07 16:53 32.28887 68.12150 37345 ft 572 kts 130°
2026-05-07 16:53 32.26355 68.15769 37401 ft 573 kts 130°
2026-05-07 16:54 32.21299 68.22982 37411 ft 572 kts 130°
2026-05-07 16:54 32.16182 68.30265 37415 ft 573 kts 130°
2026-05-07 16:55 32.11081 68.37511 37410 ft 572 kts 130°
2026-05-07 16:55 32.05998 68.44716 37410 ft 574 kts 130°
2026-05-07 16:56 32.00897 68.51932 37384 ft 574 kts 130°
2026-05-07 16:56 31.93228 68.62756 37364 ft 573 kts 130°
2026-05-07 16:57 31.88118 68.69949 37315 ft 574 kts 130°
2026-05-07 16:57 31.82996 68.77148 37318 ft 574 kts 131°
2026-05-07 16:58 31.77850 68.84365 37291 ft 574 kts 130°
2026-05-07 16:58 31.72723 68.91542 37284 ft 575 kts 130°
2026-05-07 16:59 31.67607 68.98690 37287 ft 573 kts 130°
2026-05-07 16:59 31.62546 69.06027 37281 ft 576 kts 128°
2026-05-07 17:00 31.57609 69.13401 37264 ft 575 kts 128°
2026-05-07 17:00 31.52718 69.20679 37252 ft 575 kts 128°
2026-05-07 17:01 31.48055 69.27593 37218 ft 575 kts 128°
2026-05-07 17:01 31.42974 69.35106 37200 ft 575 kts 128°
2026-05-07 17:02 31.38019 69.42416 37195 ft 575 kts 128°
2026-05-07 17:02 31.32394 69.49040 37224 ft 574 kts 142°
2026-05-07 17:03 31.26204 69.54932 37238 ft 574 kts 142°
2026-05-07 17:03 31.20075 69.60729 37238 ft 574 kts 142°
2026-05-07 17:04 31.14092 69.66383 37229 ft 573 kts 143°
2026-05-07 17:04 31.07705 69.72411 37236 ft 574 kts 143°
2026-05-07 17:05 31.01517 69.78243 37242 ft 575 kts 143°
2026-05-07 17:05 30.95256 69.84133 37227 ft 575 kts 143°
2026-05-07 17:06 30.89008 69.90002 37219 ft 574 kts 143°
2026-05-07 17:06 30.82793 69.95830 37212 ft 575 kts 143°
2026-05-07 17:07 30.76497 70.01724 37212 ft 576 kts 143°
2026-05-07 17:07 30.70243 70.07568 37173 ft 576 kts 142°
2026-05-07 17:08 30.63972 70.13419 37112 ft 577 kts 143°
2026-05-07 17:08 30.57700 70.19260 37036 ft 576 kts 142°
2026-05-07 17:09 30.51445 70.25075 36983 ft 575 kts 142°
2026-05-07 17:09 30.45142 70.30926 36967 ft 574 kts 142°
2026-05-07 17:10 30.38872 70.36736 36931 ft 575 kts 142°
2026-05-07 17:10 30.32581 70.42554 36897 ft 575 kts 142°
2026-05-07 17:11 30.26326 70.48331 36848 ft 575 kts 142°
2026-05-07 17:11 30.20115 70.54079 36808 ft 576 kts 142°
2026-05-07 17:12 30.13900 70.59968 36790 ft 578 kts 142°
2026-05-07 17:12 30.07695 70.65842 36783 ft 575 kts 142°
2026-05-07 17:13 30.01431 70.71758 36764 ft 579 kts 142°
2026-05-07 17:13 29.95158 70.77670 36734 ft 576 kts 142°
2026-05-07 17:14 29.88976 70.83485 36733 ft 577 kts 142°
2026-05-07 17:14 29.82690 70.89387 36710 ft 577 kts 141°
2026-05-07 17:15 29.76426 70.95258 36702 ft 577 kts 142°
2026-05-07 17:15 29.70181 71.01101 36703 ft 578 kts 142°
2026-05-07 17:16 29.64018 71.07079 36704 ft 577 kts 139°
2026-05-07 17:16 29.57961 71.13318 36704 ft 577 kts 139°
2026-05-07 17:17 29.51922 71.19511 36708 ft 578 kts 139°
2026-05-07 17:17 29.45885 71.25678 36708 ft 578 kts 139°
2026-05-07 17:18 29.39866 71.31808 36707 ft 578 kts 139°
2026-05-07 17:18 29.33790 71.37979 36706 ft 578 kts 139°
2026-05-07 17:19 29.27770 71.44089 36710 ft 579 kts 138°
2026-05-07 17:19 29.21790 71.50210 36710 ft 579 kts 139°
2026-05-07 17:20 29.15733 71.56400 36710 ft 579 kts 138°
2026-05-07 17:20 29.09730 71.62524 36709 ft 577 kts 138°
2026-05-07 17:21 29.03688 71.68675 36701 ft 578 kts 139°
2026-05-07 17:21 28.97663 71.74799 36703 ft 578 kts 139°
2026-05-07 17:22 28.91611 71.80939 36699 ft 579 kts 139°
2026-05-07 17:22 28.85584 71.87045 36693 ft 578 kts 139°
2026-05-07 17:23 28.79511 71.93186 36690 ft 579 kts 139°
2026-05-07 17:23 28.73493 71.99262 36696 ft 579 kts 139°
2026-05-07 17:24 28.67427 72.05376 36697 ft 578 kts 139°
2026-05-07 17:24 28.61348 72.11493 36702 ft 582 kts 139°
2026-05-07 17:25 28.55291 72.17578 36710 ft 578 kts 139°
2026-05-07 17:25 28.49439 72.23862 36710 ft 580 kts 130°
2026-05-07 17:26 28.44986 72.31429 36717 ft 575 kts 115°
2026-05-07 17:26 28.41245 72.39516 36716 ft 575 kts 115°
2026-05-07 17:27 28.37549 72.47523 36725 ft 573 kts 114°
2026-05-07 17:27 28.33825 72.55563 36727 ft 576 kts 115°
2026-05-07 17:28 28.30077 72.63631 36732 ft 572 kts 115°
2026-05-07 17:28 28.26365 72.71602 36721 ft 572 kts 115°
2026-05-07 17:29 28.22640 72.79584 36727 ft 571 kts 115°
2026-05-07 17:29 28.18909 72.87563 36732 ft 572 kts 115°
2026-05-07 17:30 28.15174 72.95533 36742 ft 569 kts 115°
2026-05-07 17:30 28.11458 73.03446 36747 ft 570 kts 115°
2026-05-07 17:31 28.07739 73.11352 36744 ft 569 kts 115°
2026-05-07 17:31 28.03993 73.19301 36750 ft 569 kts 115°
2026-05-07 17:32 28.00231 73.27267 36759 ft 570 kts 115°
2026-05-07 17:32 27.97132 73.33816 36765 ft 568 kts 115°
2026-05-07 17:33 27.92760 73.43041 36773 ft 569 kts 115°
2026-05-07 17:33 27.89026 73.50903 36770 ft 569 kts 115°
2026-05-07 17:34 27.85278 73.58778 36772 ft 568 kts 115°
2026-05-07 17:34 27.81531 73.66637 36773 ft 568 kts 116°
2026-05-07 17:35 27.77757 73.74539 36767 ft 568 kts 116°
2026-05-07 17:35 27.73982 73.82428 36775 ft 569 kts 116°
2026-05-07 17:36 27.70382 73.90302 36780 ft 566 kts 114°
2026-05-07 17:36 27.66860 73.98291 36785 ft 567 kts 114°
2026-05-07 17:37 27.63336 74.06247 36788 ft 567 kts 114°
2026-05-07 17:37 27.59781 74.14243 36794 ft 568 kts 114°
2026-05-07 17:38 27.56258 74.22141 36794 ft 565 kts 114°
2026-05-07 17:38 27.52718 74.30063 36800 ft 566 kts 114°
2026-05-07 17:39 27.49166 74.37989 36804 ft 565 kts 114°
2026-05-07 17:39 27.45596 74.45940 36808 ft 567 kts 114°
2026-05-07 17:40 27.42044 74.53835 36807 ft 565 kts 114°
2026-05-07 17:40 27.38488 74.61723 36813 ft 565 kts 114°
2026-05-07 17:41 27.34927 74.69606 36811 ft 567 kts 115°
2026-05-07 17:41 27.31344 74.77524 36813 ft 565 kts 115°
2026-05-07 17:42 27.27777 74.85390 36818 ft 566 kts 115°
2026-05-07 17:42 27.24186 74.93296 36828 ft 566 kts 115°
2026-05-07 17:43 27.20590 75.01198 36835 ft 565 kts 115°
2026-05-07 17:43 27.17026 75.09013 36834 ft 565 kts 115°
2026-05-07 17:44 27.13429 75.16888 36838 ft 565 kts 115°
2026-05-07 17:44 27.09828 75.24757 36836 ft 565 kts 115°
2026-05-07 17:45 27.06236 75.32589 36830 ft 563 kts 115°
2026-05-07 17:45 27.02726 75.40228 36840 ft 564 kts 115°
2026-05-07 17:46 26.99144 75.48006 36840 ft 563 kts 115°
2026-05-07 17:46 26.95529 75.55843 36838 ft 563 kts 116°
2026-05-07 17:47 26.91923 75.63647 36835 ft 562 kts 115°
2026-05-07 17:47 26.88361 75.71342 36810 ft 563 kts 116°
2026-05-07 17:48 26.84753 75.79119 36805 ft 563 kts 116°
2026-05-07 17:48 26.81106 75.86852 36803 ft 563 kts 118°
2026-05-07 17:49 26.77199 75.94495 36805 ft 563 kts 119°
2026-05-07 17:49 26.73299 76.02106 36806 ft 563 kts 119°
2026-05-07 17:50 26.69397 76.09728 36812 ft 563 kts 119°
2026-05-07 17:50 26.65523 76.17296 36800 ft 562 kts 119°
2026-05-07 17:51 26.61627 76.24898 36800 ft 562 kts 119°
2026-05-07 17:51 26.57726 76.32500 36798 ft 561 kts 119°
2026-05-07 17:52 26.53820 76.40102 36804 ft 563 kts 119°
2026-05-07 17:52 26.49934 76.47653 36798 ft 562 kts 119°
2026-05-07 17:53 26.46026 76.55235 36791 ft 561 kts 119°
2026-05-07 17:53 26.42327 76.62929 36794 ft 562 kts 117°
2026-05-07 17:54 26.38679 76.70612 36771 ft 561 kts 118°
2026-05-07 17:54 26.35019 76.78282 36779 ft 563 kts 117°
2026-05-07 17:55 26.31319 76.86013 36781 ft 562 kts 118°
2026-05-07 17:55 26.27630 76.93700 36782 ft 563 kts 118°
2026-05-07 17:56 26.23915 77.01421 36787 ft 562 kts 118°
2026-05-07 17:56 26.20218 77.09091 36779 ft 562 kts 118°
2026-05-07 17:57 26.17112 77.15525 36782 ft 562 kts 118°
2026-05-07 17:57 26.12788 77.24456 36783 ft 562 kts 118°
2026-05-07 17:58 26.09012 77.32204 36794 ft 562 kts 118°
2026-05-07 17:58 26.05250 77.39909 36799 ft 563 kts 119°
2026-05-07 17:59 26.01506 77.47564 36795 ft 562 kts 118°
2026-05-07 17:59 25.97762 77.55209 36801 ft 562 kts 118°
2026-05-07 18:00 25.93971 77.62936 36809 ft 562 kts 119°
2026-05-07 18:00 25.90233 77.70540 36798 ft 561 kts 120°
2026-05-07 18:01 25.86463 77.78199 36794 ft 562 kts 120°
2026-05-07 18:01 25.82674 77.85882 36794 ft 563 kts 120°
2026-05-07 18:02 25.76996 77.97372 36782 ft 562 kts 120°
2026-05-07 18:03 25.73241 78.04954 36779 ft 562 kts 120°
2026-05-07 18:03 25.69443 78.12611 36779 ft 561 kts 120°
2026-05-07 18:04 25.65661 78.20223 36785 ft 562 kts 120°
2026-05-07 18:04 25.61889 78.27800 36790 ft 562 kts 120°
2026-05-07 18:05 25.58091 78.35486 36791 ft 563 kts 120°
2026-05-07 18:05 25.54344 78.43123 36796 ft 563 kts 120°
2026-05-07 18:06 25.50586 78.50765 36798 ft 563 kts 120°
2026-05-07 18:06 25.46810 78.58430 36796 ft 561 kts 120°
2026-05-07 18:07 25.43051 78.66042 36797 ft 562 kts 121°
2026-05-07 18:07 25.39299 78.73630 36791 ft 562 kts 121°
2026-05-07 18:08 25.35523 78.81252 36788 ft 562 kts 121°
2026-05-07 18:08 25.31744 78.88867 36791 ft 562 kts 121°
2026-05-07 18:09 25.27979 78.96442 36790 ft 563 kts 121°
2026-05-07 18:09 25.24193 79.04046 36783 ft 561 kts 121°
2026-05-07 18:10 25.20400 79.11651 36783 ft 563 kts 121°
2026-05-07 18:10 25.16602 79.19254 36786 ft 562 kts 121°
2026-05-07 18:11 25.12817 79.26819 36793 ft 561 kts 121°
2026-05-07 18:11 25.09026 79.34383 36795 ft 562 kts 121°
2026-05-07 18:12 25.05228 79.41949 36799 ft 562 kts 122°
2026-05-07 18:12 25.01423 79.49516 36802 ft 561 kts 122°
2026-05-07 18:13 24.97585 79.57136 36803 ft 563 kts 122°
2026-05-07 18:13 24.93767 79.64705 36811 ft 562 kts 122°
2026-05-07 18:14 24.89968 79.72223 36788 ft 563 kts 122°
2026-05-07 18:14 24.86124 79.79818 36794 ft 564 kts 122°
2026-05-07 18:15 24.82315 79.87333 36785 ft 562 kts 123°
2026-05-07 18:15 24.77897 79.94455 36793 ft 556 kts 134°
2026-05-07 18:16 24.72975 80.01012 36792 ft 556 kts 134°
2026-05-07 18:16 24.68018 80.07578 36807 ft 555 kts 134°
2026-05-07 18:17 24.63058 80.14138 36821 ft 557 kts 134°
2026-05-07 18:17 24.58065 80.20733 36831 ft 555 kts 134°
2026-05-07 18:18 24.53117 80.27257 36838 ft 557 kts 134°
2026-05-07 18:18 24.48115 80.33846 36838 ft 554 kts 135°
2026-05-07 18:19 24.43130 80.40401 36846 ft 555 kts 135°
2026-05-07 18:19 24.38169 80.46916 36861 ft 557 kts 134°
2026-05-07 18:20 24.33192 80.53445 36865 ft 555 kts 134°
2026-05-07 18:20 24.28189 80.59997 36871 ft 554 kts 134°
2026-05-07 18:21 24.23198 80.66525 36847 ft 556 kts 135°
2026-05-07 18:21 24.18205 80.73049 36848 ft 554 kts 135°
2026-05-07 18:22 24.13191 80.79590 36837 ft 554 kts 135°
2026-05-07 18:22 24.08226 80.86057 36838 ft 554 kts 135°
2026-05-07 18:23 24.03208 80.92586 36845 ft 554 kts 135°
2026-05-07 18:23 23.98255 80.99022 36846 ft 553 kts 135°
2026-05-07 18:24 23.93264 81.05497 36857 ft 554 kts 135°
2026-05-07 18:24 23.88281 81.11955 36862 ft 553 kts 135°
2026-05-07 18:25 23.83314 81.18385 36868 ft 551 kts 135°
2026-05-07 18:25 23.78337 81.24816 36862 ft 554 kts 135°
2026-05-07 18:26 23.73354 81.31251 36875 ft 549 kts 135°
2026-05-07 18:26 23.68389 81.37650 36883 ft 551 kts 135°
2026-05-07 18:27 23.63397 81.44078 36896 ft 549 kts 135°
2026-05-07 18:27 23.58445 81.50446 36908 ft 550 kts 135°
2026-05-07 18:28 23.53470 81.56834 36912 ft 548 kts 135°
2026-05-07 18:28 23.48506 81.63200 36906 ft 548 kts 135°
2026-05-07 18:29 23.43493 81.69624 36896 ft 547 kts 136°
2026-05-07 18:29 23.38520 81.75984 36892 ft 548 kts 136°
2026-05-07 18:30 23.33580 81.82297 36892 ft 546 kts 136°
2026-05-07 18:30 23.28619 81.88627 36898 ft 547 kts 135°
2026-05-07 18:31 23.23637 81.94977 36909 ft 546 kts 135°
2026-05-07 18:31 23.18702 82.01258 36909 ft 546 kts 135°
2026-05-07 18:32 23.13725 82.07586 36910 ft 544 kts 135°
2026-05-07 18:32 23.08780 82.13864 36904 ft 545 kts 135°
2026-05-07 18:33 23.03886 82.20193 36888 ft 544 kts 134°
2026-05-07 18:33 22.99074 82.26584 36885 ft 544 kts 134°
2026-05-07 18:34 22.94267 82.32955 36879 ft 542 kts 134°
2026-05-07 18:34 22.89455 82.39321 36897 ft 542 kts 134°
2026-05-07 18:35 22.84624 82.45701 36906 ft 543 kts 134°
2026-05-07 18:35 22.79847 82.52000 36905 ft 540 kts 134°
2026-05-07 18:36 22.75069 82.58290 36906 ft 542 kts 134°
2026-05-07 18:36 22.70273 82.64598 36901 ft 541 kts 134°
2026-05-07 18:37 22.65494 82.70876 36873 ft 538 kts 134°
2026-05-07 18:37 22.60733 82.77123 36869 ft 537 kts 134°
2026-05-07 18:38 22.55959 82.83378 36865 ft 537 kts 135°
2026-05-07 18:38 22.51200 82.89605 36866 ft 537 kts 135°
2026-05-07 18:39 22.46430 82.95840 36850 ft 535 kts 134°
2026-05-07 18:39 22.41676 83.02045 36840 ft 536 kts 134°
2026-05-07 18:40 22.36920 83.08248 36841 ft 534 kts 134°
2026-05-07 18:40 22.32172 83.14433 36840 ft 533 kts 134°
2026-05-07 18:41 22.27439 83.20589 36850 ft 534 kts 134°
2026-05-07 18:41 22.22698 83.26751 36855 ft 532 kts 134°
2026-05-07 18:42 22.17945 83.32922 36845 ft 530 kts 134°
2026-05-07 18:42 22.13341 83.39156 36841 ft 533 kts 133°
2026-05-07 18:43 22.08746 83.45416 36835 ft 530 kts 133°
2026-05-07 18:43 22.04093 83.51610 36814 ft 528 kts 134°
2026-05-07 18:44 21.99393 83.57730 36817 ft 528 kts 134°
2026-05-07 18:44 21.94703 83.63837 36814 ft 528 kts 134°
2026-05-07 18:45 21.90021 83.69929 36802 ft 527 kts 135°
2026-05-07 18:45 21.85331 83.76026 36808 ft 525 kts 135°
2026-05-07 18:46 21.80653 83.82101 36806 ft 527 kts 135°
2026-05-07 18:46 21.75990 83.88153 36805 ft 525 kts 134°
2026-05-07 18:47 21.71310 83.94218 36794 ft 523 kts 135°
2026-05-07 18:47 21.66611 84.00302 36792 ft 524 kts 135°
2026-05-07 18:48 21.61976 84.06297 36780 ft 524 kts 134°
2026-05-07 18:48 21.57298 84.12340 36796 ft 524 kts 134°
2026-05-07 18:49 21.52596 84.18407 36798 ft 524 kts 134°
2026-05-07 18:49 21.47922 84.24433 36817 ft 524 kts 135°
2026-05-07 18:50 21.47028 84.25584 36816 ft 524 kts 134°
2026-05-07 18:50 21.44582 84.28734 36827 ft 524 kts 134°
2026-05-07 18:51 21.39877 84.34787 36822 ft 524 kts 134°
2026-05-07 18:51 21.35184 84.40818 36818 ft 525 kts 134°
2026-05-07 18:52 21.30487 84.46849 36812 ft 524 kts 134°
2026-05-07 18:52 21.25826 84.52825 36808 ft 524 kts 134°
2026-05-07 18:53 21.21131 84.58839 36798 ft 524 kts 134°
2026-05-07 18:53 21.16410 84.64880 36798 ft 524 kts 134°
2026-05-07 18:54 21.11723 84.70871 36791 ft 525 kts 135°
2026-05-07 18:54 21.07003 84.76897 36791 ft 524 kts 134°
2026-05-07 18:55 21.02329 84.82858 36794 ft 524 kts 134°
2026-05-07 18:55 20.97627 84.88850 36787 ft 525 kts 135°
2026-05-07 18:56 20.92917 84.94844 36784 ft 523 kts 134°
2026-05-07 18:56 20.88219 85.00816 36788 ft 523 kts 134°
2026-05-07 18:57 20.83529 85.06771 36791 ft 524 kts 134°
2026-05-07 18:57 20.78818 85.12748 36798 ft 524 kts 134°
2026-05-07 18:58 20.74102 85.18726 36807 ft 523 kts 134°
2026-05-07 18:58 20.69389 85.24692 36812 ft 522 kts 134°
2026-05-07 18:59 20.64715 85.30602 36811 ft 523 kts 134°
2026-05-07 18:59 20.60030 85.36521 36810 ft 520 kts 134°
2026-05-07 19:00 20.55307 85.42480 36809 ft 522 kts 134°
2026-05-07 19:00 20.50581 85.48438 36809 ft 522 kts 134°
2026-05-07 19:01 20.45865 85.54376 36803 ft 522 kts 134°
2026-05-07 19:01 20.41206 85.60239 36796 ft 520 kts 134°
2026-05-07 19:02 20.36501 85.66150 36788 ft 521 kts 135°
2026-05-07 19:02 20.31802 85.72050 36782 ft 520 kts 134°
2026-05-07 19:03 20.27100 85.77947 36781 ft 520 kts 134°
2026-05-07 19:03 20.22145 85.83643 36790 ft 515 kts 140°
2026-05-07 19:04 20.16945 85.88982 36785 ft 514 kts 140°
2026-05-07 19:04 20.11755 85.94299 36786 ft 516 kts 140°
2026-05-07 19:05 20.06554 85.99624 36785 ft 514 kts 140°
2026-05-07 19:05 20.01369 86.04927 36785 ft 515 kts 140°
2026-05-07 19:06 19.96164 86.10249 36792 ft 513 kts 140°
2026-05-07 19:06 19.88436 86.18196 36797 ft 514 kts 139°
2026-05-07 19:07 19.83318 86.23610 36801 ft 512 kts 139°
2026-05-07 19:07 19.78223 86.28990 36800 ft 512 kts 139°
2026-05-07 19:08 19.73109 86.34381 36804 ft 512 kts 139°
2026-05-07 19:08 19.67986 86.39774 36813 ft 511 kts 139°
2026-05-07 19:09 19.62914 86.45107 36814 ft 512 kts 139°
2026-05-07 19:09 19.57802 86.50444 36814 ft 511 kts 140°
2026-05-07 19:10 19.52707 86.55740 36823 ft 511 kts 139°
2026-05-07 19:10 19.47572 86.61075 36826 ft 510 kts 140°
2026-05-07 19:11 19.42468 86.66372 36819 ft 510 kts 140°
2026-05-07 19:11 19.37352 86.71679 36821 ft 509 kts 140°
2026-05-07 19:12 19.32281 86.76933 36823 ft 509 kts 140°
2026-05-07 19:12 19.27148 86.82246 36830 ft 509 kts 140°
2026-05-07 19:13 19.22030 86.87540 36828 ft 509 kts 140°
2026-05-07 19:13 19.16909 86.92833 36838 ft 509 kts 140°
2026-05-07 19:14 19.11830 86.98077 36834 ft 509 kts 140°
2026-05-07 19:14 19.06739 87.03329 36840 ft 508 kts 140°
2026-05-07 19:15 19.01618 87.08605 36842 ft 508 kts 140°
2026-05-07 19:15 18.96526 87.13849 36846 ft 508 kts 139°
2026-05-07 19:16 18.91433 87.19088 36849 ft 507 kts 139°
2026-05-07 19:16 18.86343 87.24320 36853 ft 507 kts 139°
2026-05-07 19:17 18.81265 87.29535 36853 ft 506 kts 139°
2026-05-07 19:17 18.76158 87.34773 36855 ft 505 kts 139°
2026-05-07 19:18 18.71084 87.39975 36854 ft 504 kts 139°
2026-05-07 19:18 18.66035 87.45146 36852 ft 504 kts 139°
2026-05-07 19:19 18.60975 87.50324 36852 ft 503 kts 139°
2026-05-07 19:19 18.55905 87.55508 36854 ft 503 kts 139°
2026-05-07 19:20 18.50856 87.60664 36859 ft 503 kts 139°
2026-05-07 19:20 18.45825 87.65800 36852 ft 501 kts 140°
2026-05-07 19:21 18.40769 87.70955 36846 ft 501 kts 140°
2026-05-07 19:21 18.35731 87.76088 36848 ft 500 kts 139°
2026-05-07 19:22 18.30677 87.81233 36846 ft 498 kts 140°
2026-05-07 19:22 18.25670 87.86365 36841 ft 499 kts 139°
2026-05-07 19:23 18.20700 87.91529 36848 ft 499 kts 139°
2026-05-07 19:23 18.15722 87.96694 36845 ft 497 kts 139°
2026-05-07 19:24 18.10753 88.01842 36845 ft 496 kts 139°
2026-05-07 19:24 18.05793 88.06976 36842 ft 497 kts 139°
2026-05-07 19:25 18.00828 88.12109 36845 ft 496 kts 139°
2026-05-07 19:25 17.95879 88.17222 36848 ft 495 kts 139°
2026-05-07 19:26 17.90890 88.22370 36845 ft 496 kts 139°
2026-05-07 19:26 17.85929 88.27486 36854 ft 494 kts 139°
2026-05-07 19:27 17.80990 88.32575 36855 ft 495 kts 139°
2026-05-07 19:27 17.76049 88.37663 36854 ft 494 kts 139°
2026-05-07 19:28 17.71100 88.42754 36853 ft 494 kts 139°
2026-05-07 19:28 17.66169 88.47822 36857 ft 493 kts 139°
2026-05-07 19:29 17.61248 88.52875 36855 ft 495 kts 139°
2026-05-07 19:29 17.56303 88.57949 36856 ft 494 kts 139°
2026-05-07 19:30 17.51338 88.63040 36855 ft 495 kts 139°
2026-05-07 19:30 17.46434 88.68065 36849 ft 493 kts 139°
2026-05-07 19:31 17.41508 88.73107 36848 ft 493 kts 139°
2026-05-07 19:31 17.36538 88.78191 36848 ft 493 kts 139°
2026-05-07 19:32 17.31683 88.83153 36849 ft 493 kts 139°
2026-05-07 19:32 17.26673 88.88270 36848 ft 493 kts 139°
2026-05-07 19:33 17.21722 88.93321 36847 ft 494 kts 139°
2026-05-07 19:33 17.16798 88.98378 36848 ft 494 kts 138°
2026-05-07 19:34 17.11893 89.03475 36847 ft 494 kts 138°
2026-05-07 19:34 17.06975 89.08579 36846 ft 494 kts 138°
2026-05-07 19:35 17.02027 89.13708 36846 ft 493 kts 138°
2026-05-07 19:35 16.97134 89.18774 36845 ft 493 kts 138°
2026-05-07 19:36 16.92212 89.23866 36847 ft 493 kts 138°
2026-05-07 19:36 16.87278 89.28966 36852 ft 494 kts 138°
2026-05-07 19:37 16.82325 89.34081 36851 ft 495 kts 138°
2026-05-07 19:37 16.77388 89.39176 36851 ft 495 kts 138°
2026-05-07 19:38 16.72435 89.44283 36852 ft 495 kts 138°
2026-05-07 19:38 16.67495 89.49374 36853 ft 496 kts 138°
2026-05-07 19:39 16.62569 89.54446 36852 ft 497 kts 138°
2026-05-07 19:39 16.58432 89.58702 36853 ft 496 kts 138°
2026-05-07 19:40 16.52649 89.64647 36853 ft 497 kts 138°
2026-05-07 19:40 16.47667 89.69765 36847 ft 497 kts 138°
2026-05-07 19:41 16.42729 89.74834 36845 ft 497 kts 138°
2026-05-07 19:41 16.37776 89.79913 36846 ft 498 kts 138°
2026-05-07 19:42 16.32909 89.84901 36848 ft 498 kts 138°
2026-05-07 19:42 16.27929 89.90002 36846 ft 497 kts 138°
2026-05-07 19:43 16.22947 89.95100 36846 ft 499 kts 138°
2026-05-07 19:43 16.17969 90.00191 36847 ft 499 kts 137°
2026-05-07 19:44 16.13029 90.05238 36847 ft 499 kts 137°
2026-05-07 19:44 16.08141 90.10229 36846 ft 499 kts 138°
2026-05-07 19:45 16.03185 90.15287 36846 ft 499 kts 137°
2026-05-07 19:45 15.98224 90.20418 36847 ft 500 kts 137°
2026-05-07 19:46 15.93299 90.25593 36845 ft 499 kts 136°
2026-05-07 19:46 15.88378 90.30754 36851 ft 499 kts 137°
2026-05-07 19:47 15.83431 90.35937 36850 ft 499 kts 136°
2026-05-07 19:47 15.78503 90.41093 36850 ft 498 kts 136°
2026-05-07 19:48 15.73587 90.46232 36850 ft 497 kts 136°
2026-05-07 19:48 15.68695 90.51342 36850 ft 498 kts 136°
2026-05-07 19:49 15.63759 90.56494 36850 ft 498 kts 136°
2026-05-07 19:49 15.58842 90.61621 36849 ft 496 kts 136°
2026-05-07 19:50 15.53929 90.66741 36846 ft 497 kts 136°
2026-05-07 19:50 15.49022 90.71852 36846 ft 496 kts 136°
2026-05-07 19:51 15.44102 90.76971 36846 ft 496 kts 136°
2026-05-07 19:51 15.39201 90.82068 36845 ft 496 kts 136°
2026-05-07 19:52 15.34268 90.87194 36847 ft 496 kts 136°
2026-05-07 19:52 15.29375 90.92276 36845 ft 496 kts 136°
2026-05-07 19:53 15.24470 90.97366 36846 ft 495 kts 136°
2026-05-07 19:53 15.19564 91.02452 36846 ft 495 kts 136°
2026-05-07 19:54 15.14681 91.07513 36846 ft 495 kts 136°
2026-05-07 19:54 15.09773 91.12595 36847 ft 495 kts 136°
2026-05-07 19:55 15.05050 91.17483 36846 ft 495 kts 136°
2026-05-07 19:55 15.00130 91.22571 36845 ft 494 kts 136°
2026-05-07 19:56 14.95271 91.27592 36845 ft 495 kts 136°
2026-05-07 19:56 14.90390 91.32632 36844 ft 496 kts 136°
2026-05-07 19:57 14.85479 91.37701 36847 ft 496 kts 136°
2026-05-07 19:57 14.80585 91.42749 36847 ft 496 kts 136°
2026-05-07 19:58 14.75684 91.47799 36848 ft 496 kts 136°
2026-05-07 19:58 14.70773 91.52857 36844 ft 497 kts 136°
2026-05-07 19:59 14.65837 91.57938 36841 ft 497 kts 136°
2026-05-07 19:59 14.60911 91.63004 36841 ft 498 kts 136°
2026-05-07 20:00 14.55992 91.68059 36834 ft 499 kts 136°
2026-05-07 20:00 14.51054 91.73132 36838 ft 498 kts 136°
2026-05-07 20:01 14.46098 91.78220 36834 ft 499 kts 136°
2026-05-07 20:01 14.41142 91.83303 36835 ft 499 kts 136°
2026-05-07 20:02 14.36170 91.88400 36835 ft 500 kts 136°
2026-05-07 20:02 14.31219 91.93471 36833 ft 500 kts 136°
2026-05-07 20:03 14.26240 91.98569 36831 ft 500 kts 136°
2026-05-07 20:03 14.21303 92.03713 36829 ft 500 kts 135°
2026-05-07 20:04 14.16418 92.08874 36832 ft 500 kts 135°
2026-05-07 20:04 14.11515 92.14046 36829 ft 501 kts 135°
2026-05-07 20:05 14.06663 92.19157 36829 ft 501 kts 135°
2026-05-07 20:05 14.01723 92.24355 36829 ft 501 kts 135°
2026-05-07 20:06 13.96846 92.29484 36828 ft 501 kts 135°
2026-05-07 20:06 13.91919 92.34632 36825 ft 501 kts 136°
2026-05-07 20:07 13.86902 92.39651 36823 ft 501 kts 136°
2026-05-07 20:07 13.81887 92.44661 36821 ft 501 kts 136°
2026-05-07 20:08 13.76840 92.49708 36820 ft 501 kts 136°
2026-05-07 20:08 13.71817 92.54730 36821 ft 502 kts 136°
2026-05-07 20:09 13.66765 92.59781 36819 ft 501 kts 136°
2026-05-07 20:10 13.59239 92.67300 36818 ft 502 kts 136°
2026-05-07 20:10 13.54201 92.72331 36818 ft 503 kts 136°
2026-05-07 20:11 13.49161 92.77361 36816 ft 501 kts 135°
2026-05-07 20:11 13.44159 92.82350 36815 ft 497 kts 135°
2026-05-07 20:12 13.39217 92.87276 36814 ft 495 kts 135°
2026-05-07 20:12 13.34214 92.92260 36821 ft 496 kts 135°
2026-05-07 20:13 13.29249 92.97203 36823 ft 495 kts 135°
2026-05-07 20:13 13.24290 93.02137 36821 ft 494 kts 135°
2026-05-07 20:14 13.19289 93.07110 36820 ft 495 kts 135°
2026-05-07 20:14 13.14344 93.12025 36812 ft 494 kts 135°
2026-05-07 20:15 13.09375 93.16959 36813 ft 494 kts 135°
2026-05-07 20:15 13.04422 93.21876 36809 ft 494 kts 135°
2026-05-07 20:16 12.99426 93.26833 36806 ft 495 kts 135°
2026-05-07 20:16 12.94454 93.31761 36806 ft 494 kts 135°
2026-05-07 20:17 12.89514 93.36657 36806 ft 494 kts 135°
2026-05-07 20:17 12.84548 93.41574 36805 ft 495 kts 135°
2026-05-07 20:18 12.79597 93.46474 36806 ft 494 kts 135°
2026-05-07 20:18 12.74639 93.51379 36806 ft 494 kts 135°
2026-05-07 20:19 12.69651 93.56310 36805 ft 494 kts 135°
2026-05-07 20:19 12.64670 93.61231 36805 ft 494 kts 135°
2026-05-07 20:20 12.59718 93.66121 36805 ft 494 kts 135°
2026-05-07 20:20 12.54746 93.71027 36807 ft 494 kts 135°
2026-05-07 20:21 12.49750 93.75955 36806 ft 494 kts 135°
2026-05-07 20:21 12.44799 93.80836 36806 ft 494 kts 135°
2026-05-07 20:22 12.39830 93.85731 36805 ft 494 kts 135°
2026-05-07 20:22 12.34816 93.90669 36806 ft 494 kts 135°
2026-05-07 20:23 12.29822 93.95583 36806 ft 494 kts 135°
2026-05-07 20:23 12.24839 94.00485 36806 ft 494 kts 135°
2026-05-07 20:24 12.19902 94.05353 36806 ft 494 kts 135°
2026-05-07 20:24 12.14921 94.10311 36805 ft 493 kts 135°
2026-05-07 20:25 12.10029 94.15177 36806 ft 494 kts 134°
2026-05-07 20:25 12.05052 94.20123 36806 ft 493 kts 134°
2026-05-07 20:26 12.00111 94.25029 36805 ft 494 kts 134°
2026-05-07 20:26 11.95161 94.29942 36804 ft 494 kts 135°
2026-05-07 20:27 11.90221 94.34841 36806 ft 495 kts 134°
2026-05-07 20:27 11.85279 94.39741 36804 ft 494 kts 134°
2026-05-07 20:28 11.80498 94.44764 36814 ft 493 kts 129°
2026-05-07 20:28 11.76001 94.50146 36803 ft 494 kts 129°
2026-05-07 20:29 11.71493 94.55505 36805 ft 494 kts 129°
2026-05-07 20:29 11.66954 94.60868 36803 ft 495 kts 129°
2026-05-07 20:30 11.62447 94.66177 36804 ft 495 kts 130°
2026-05-07 20:30 11.57884 94.71537 36806 ft 496 kts 130°
2026-05-07 20:31 11.53364 94.76841 36805 ft 496 kts 130°
2026-05-07 20:31 11.48792 94.82199 36806 ft 496 kts 130°
2026-05-07 20:32 11.44246 94.87523 36806 ft 496 kts 130°
2026-05-07 20:32 11.39679 94.92868 36806 ft 497 kts 130°
2026-05-07 20:33 11.35121 94.98199 36806 ft 497 kts 130°
2026-05-07 20:33 11.30557 95.03535 36806 ft 497 kts 130°
2026-05-07 20:34 11.25996 95.08864 36807 ft 498 kts 130°
2026-05-07 20:34 11.21440 95.14184 36807 ft 498 kts 130°
2026-05-07 20:35 11.16854 95.19536 36806 ft 498 kts 130°
2026-05-07 20:35 11.12292 95.24857 36806 ft 498 kts 130°
2026-05-07 20:36 11.07726 95.30181 36807 ft 499 kts 130°
2026-05-07 20:36 11.03123 95.35545 36806 ft 499 kts 130°
2026-05-07 20:37 10.98550 95.40871 36807 ft 499 kts 130°
2026-05-07 20:37 10.93966 95.46207 36807 ft 498 kts 130°
2026-05-07 20:38 10.89392 95.51528 36806 ft 499 kts 130°
2026-05-07 20:38 10.84817 95.56847 36805 ft 498 kts 130°
2026-05-07 20:39 10.80224 95.62187 36805 ft 497 kts 130°
2026-05-07 20:39 10.75698 95.67445 36806 ft 498 kts 130°
2026-05-07 20:40 10.71097 95.72787 36806 ft 497 kts 130°
2026-05-07 20:40 10.66521 95.78097 36806 ft 496 kts 130°
2026-05-07 20:41 10.61961 95.83386 36806 ft 496 kts 130°
2026-05-07 20:41 10.57384 95.88694 36806 ft 496 kts 130°
2026-05-07 20:42 10.52820 95.93982 36806 ft 495 kts 130°
2026-05-07 20:42 10.48258 95.99266 36806 ft 495 kts 130°
2026-05-07 20:43 10.43717 96.04524 36806 ft 494 kts 130°
2026-05-07 20:43 10.39137 96.09823 36806 ft 494 kts 130°
2026-05-07 20:44 10.34589 96.15083 36806 ft 494 kts 130°
2026-05-07 20:44 10.30045 96.20336 36805 ft 492 kts 130°
2026-05-07 20:45 10.25566 96.25512 36805 ft 493 kts 130°
2026-05-07 20:45 10.21063 96.30712 36805 ft 492 kts 130°
2026-05-07 20:46 10.16495 96.35985 36805 ft 491 kts 130°
2026-05-07 20:46 10.11977 96.41199 36805 ft 491 kts 130°
2026-05-07 20:47 10.07482 96.46383 36805 ft 491 kts 130°
2026-05-07 20:47 10.02968 96.51587 36804 ft 490 kts 130°
2026-05-07 20:48 9.98303 96.56611 36808 ft 491 kts 135°
2026-05-07 20:48 9.93237 96.61377 36805 ft 491 kts 136°
2026-05-07 20:49 9.88232 96.66076 36803 ft 490 kts 136°
2026-05-07 20:49 9.83201 96.70798 36807 ft 491 kts 136°
2026-05-07 20:50 9.78169 96.75521 36803 ft 490 kts 136°
2026-05-07 20:50 9.73175 96.80208 36801 ft 490 kts 136°
2026-05-07 20:51 9.68137 96.84933 36801 ft 490 kts 136°
2026-05-07 20:51 9.63107 96.89649 36798 ft 489 kts 136°
2026-05-07 20:52 9.58089 96.94353 36799 ft 489 kts 136°
2026-05-07 20:52 9.53084 96.99041 36796 ft 488 kts 136°
2026-05-07 20:52 9.50598 97.01370 36596 ft 482 kts 136°
2026-05-07 20:53 9.48114 97.03695 35675 ft 484 kts 136°
2026-05-07 20:53 9.45624 97.06027 34645 ft 488 kts 136°
2026-05-07 20:53 9.43134 97.08359 33772 ft 488 kts 136°
2026-05-07 20:53 9.40629 97.10702 32922 ft 488 kts 136°
2026-05-07 20:54 9.38135 97.13036 32059 ft 488 kts 136°
2026-05-07 20:54 9.35599 97.15408 31179 ft 489 kts 136°
2026-05-07 20:54 9.33086 97.17758 30326 ft 490 kts 136°
2026-05-07 20:54 9.30582 97.20100 29820 ft 483 kts 136°
2026-05-07 20:55 9.28114 97.22407 29315 ft 476 kts 136°
2026-05-07 20:55 9.25678 97.24684 28758 ft 471 kts 136°
2026-05-07 20:55 9.23254 97.26949 28195 ft 466 kts 136°
2026-05-07 20:55 9.20893 97.29154 27647 ft 462 kts 136°
2026-05-07 20:56 9.18527 97.31364 27071 ft 459 kts 136°
2026-05-07 20:56 9.16192 97.33546 26500 ft 455 kts 136°
2026-05-07 20:56 9.13848 97.35734 25917 ft 452 kts 136°
2026-05-07 20:56 9.11552 97.37878 25336 ft 449 kts 136°
2026-05-07 20:57 9.09253 97.40023 24757 ft 446 kts 136°
2026-05-07 20:57 9.06946 97.42176 24160 ft 443 kts 136°
2026-05-07 20:57 9.04676 97.44294 23570 ft 441 kts 136°
2026-05-07 20:57 9.02429 97.46390 22987 ft 438 kts 135°
2026-05-07 20:58 9.00189 97.48480 22390 ft 436 kts 135°
2026-05-07 20:58 8.97972 97.50548 21804 ft 434 kts 135°
2026-05-07 20:58 8.95745 97.52625 21204 ft 432 kts 136°
2026-05-07 20:58 8.93506 97.54712 20588 ft 430 kts 135°
2026-05-07 20:59 8.91304 97.56764 19982 ft 427 kts 136°
2026-05-07 20:59 8.89143 97.58778 19378 ft 425 kts 136°
2026-05-07 20:59 8.86963 97.60811 18763 ft 423 kts 136°
2026-05-07 20:59 8.84775 97.62849 18145 ft 420 kts 136°
2026-05-07 21:00 8.82626 97.64842 17528 ft 417 kts 136°
2026-05-07 21:00 8.80482 97.66831 16917 ft 415 kts 136°
2026-05-07 21:00 8.78359 97.68800 16311 ft 412 kts 136°
2026-05-07 21:00 8.76240 97.70764 15691 ft 409 kts 136°
2026-05-07 21:01 8.74146 97.72705 15073 ft 406 kts 136°
2026-05-07 21:01 8.72054 97.74644 14455 ft 404 kts 136°
2026-05-07 21:01 8.69990 97.76557 13839 ft 401 kts 136°
2026-05-07 21:01 8.67929 97.78468 13222 ft 398 kts 136°
2026-05-07 21:02 8.65902 97.80345 12707 ft 392 kts 136°
2026-05-07 21:02 8.63908 97.82192 12135 ft 388 kts 136°
2026-05-07 21:02 8.61901 97.84051 11509 ft 386 kts 136°
2026-05-07 21:02 8.59908 97.85897 10920 ft 382 kts 136°
2026-05-07 21:03 8.57980 97.87682 10748 ft 367 kts 136°
2026-05-07 21:03 8.56147 97.89378 10656 ft 351 kts 136°
2026-05-07 21:03 8.54362 97.91029 10524 ft 337 kts 136°
2026-05-07 21:03 8.52664 97.92601 10375 ft 325 kts 135°
2026-05-07 21:04 8.51027 97.94116 10225 ft 314 kts 135°
2026-05-07 21:04 8.49420 97.95602 10073 ft 304 kts 136°
2026-05-07 21:04 8.47689 97.96778 9862 ft 299 kts 151°
2026-05-07 21:04 8.45796 97.97611 9725 ft 289 kts 155°
2026-05-07 21:05 8.43956 97.98350 9641 ft 279 kts 155°
2026-05-07 21:05 8.42159 97.99068 9557 ft 277 kts 155°
2026-05-07 21:05 8.40335 97.99802 9462 ft 276 kts 155°
2026-05-07 21:05 8.38536 98.00525 9366 ft 276 kts 155°
2026-05-07 21:06 8.36737 98.01248 9270 ft 274 kts 155°
2026-05-07 21:06 8.34989 98.01951 9177 ft 262 kts 155°
2026-05-07 21:06 8.33268 98.02435 9082 ft 254 kts 168°
2026-05-07 21:06 8.31500 98.02640 8999 ft 255 kts 171°
2026-05-07 21:07 8.29711 98.02807 8910 ft 255 kts 172°
2026-05-07 21:07 8.27934 98.02973 8886 ft 255 kts 172°
2026-05-07 21:07 8.26160 98.03141 8884 ft 255 kts 171°
2026-05-07 21:07 8.24375 98.03311 8884 ft 255 kts 171°
2026-05-07 21:08 8.22568 98.03487 8882 ft 255 kts 170°
2026-05-07 21:08 8.20954 98.04034 8868 ft 236 kts 144°
2026-05-07 21:08 8.19850 98.05197 8845 ft 224 kts 119°
2026-05-07 21:08 8.19363 98.06658 8835 ft 222 kts 98°
2026-05-07 21:09 8.19275 98.08224 8832 ft 221 kts 90°
2026-05-07 21:09 8.19356 98.09763 8831 ft 221 kts 86°
2026-05-07 21:09 8.19496 98.11320 8830 ft 220 kts 85°
2026-05-07 21:09 8.19642 98.12857 8829 ft 221 kts 85°
2026-05-07 21:10 8.19789 98.14398 8829 ft 221 kts 85°
2026-05-07 21:10 8.19936 98.15955 8828 ft 220 kts 85°
2026-05-07 21:10 8.20081 98.17488 8826 ft 219 kts 85°
2026-05-07 21:10 8.20225 98.19019 8825 ft 220 kts 85°
2026-05-07 21:11 8.20370 98.20551 8824 ft 221 kts 85°
2026-05-07 21:11 8.20516 98.22105 8822 ft 221 kts 85°
2026-05-07 21:11 8.20807 98.25186 8729 ft 222 kts 85°
2026-05-07 21:12 8.20954 98.26749 8488 ft 221 kts 85°
2026-05-07 21:12 8.21099 98.28284 8204 ft 219 kts 85°
2026-05-07 21:12 8.21242 98.29808 7915 ft 218 kts 85°
2026-05-07 21:12 8.21385 98.31323 7629 ft 218 kts 85°
2026-05-07 21:13 8.21529 98.32858 7338 ft 217 kts 85°
2026-05-07 21:13 8.21671 98.34364 7051 ft 215 kts 85°
2026-05-07 21:13 8.21813 98.35870 6781 ft 215 kts 85°
2026-05-07 21:13 8.21952 98.37357 6644 ft 215 kts 85°
2026-05-07 21:14 8.22095 98.38876 6509 ft 215 kts 85°
2026-05-07 21:14 8.22236 98.40372 6363 ft 214 kts 85°
2026-05-07 21:14 8.22375 98.41861 6211 ft 214 kts 85°
2026-05-07 21:14 8.22515 98.43352 6061 ft 215 kts 85°
2026-05-07 21:15 8.22657 98.44864 5907 ft 213 kts 85°
2026-05-07 21:15 8.22796 98.46350 5755 ft 213 kts 85°
2026-05-07 21:15 8.22935 98.47829 5604 ft 214 kts 85°
2026-05-07 21:15 8.23076 98.49334 5452 ft 213 kts 85°
2026-05-07 21:16 8.23213 98.50798 5297 ft 205 kts 85°
2026-05-07 21:16 8.23343 98.52184 5154 ft 194 kts 85°
2026-05-07 21:16 8.23467 98.53519 5024 ft 191 kts 85°
2026-05-07 21:16 8.23550 98.54869 4888 ft 190 kts 93°
2026-05-07 21:17 8.23372 98.56171 4732 ft 184 kts 107°
2026-05-07 21:17 8.22640 98.57170 4554 ft 178 kts 146°
2026-05-07 21:17 8.21456 98.57460 4452 ft 174 kts 178°
2026-05-07 21:17 8.20299 98.57120 4326 ft 177 kts 208°
2026-05-07 21:18 8.19282 98.56363 4228 ft 178 kts 218°
2026-05-07 21:18 8.18339 98.55546 4138 ft 178 kts 219°
2026-05-07 21:18 8.17385 98.54714 4044 ft 177 kts 219°
2026-05-07 21:18 8.16442 98.53895 3951 ft 177 kts 219°
2026-05-07 21:19 8.15510 98.53086 3855 ft 178 kts 219°
2026-05-07 21:19 8.14567 98.52268 3764 ft 176 kts 219°
2026-05-07 21:19 8.13631 98.51457 3672 ft 176 kts 219°
2026-05-07 21:19 8.12882 98.50530 3571 ft 168 kts 248°
2026-05-07 21:20 8.12629 98.49372 3373 ft 169 kts 264°
2026-05-07 21:20 8.12544 98.48203 3136 ft 164 kts 267°
2026-05-07 21:20 8.12489 98.47092 2924 ft 156 kts 266°
2026-05-07 21:20 8.12412 98.46020 2720 ft 153 kts 266°
2026-05-07 21:21 8.12332 98.44937 2507 ft 153 kts 266°
2026-05-07 21:21 8.12256 98.43874 2300 ft 152 kts 266°
2026-05-07 21:21 8.12182 98.42818 2089 ft 151 kts 266°
2026-05-07 21:21 8.12107 98.41758 1878 ft 150 kts 266°
2026-05-07 21:22 8.12034 98.40707 1666 ft 149 kts 266°
2026-05-07 21:22 8.11960 98.39656 1455 ft 149 kts 266°
2026-05-07 21:22 8.11887 98.38612 1244 ft 148 kts 266°
2026-05-07 21:22 8.11815 98.37581 1037 ft 148 kts 266°
2026-05-07 21:23 8.11744 98.36552 835 ft 148 kts 266°
2026-05-07 21:23 8.11671 98.35512 627 ft 147 kts 266°
2026-05-07 21:23 8.11599 98.34489 424 ft 147 kts 266°
2026-05-07 21:23 8.11482 98.33466 212 ft 146 kts 264°
2026-05-07 21:24 8.11399 98.32475 104 ft 126 kts 264°
2026-05-07 21:24 8.11325 98.31744 78 ft 83 kts 264°
2026-05-07 21:24 8.11271 98.31194 50 ft 51 kts 266°
2026-05-07 21:24 8.11239 98.30961 46 ft 19 kts 231°
2026-05-07 21:25 8.11218 98.30943 46 ft 0 kts 205°
2026-05-07 21:26 8.11217 98.30943 46 ft 2 kts 205°
2026-05-07 21:26 8.11172 98.30933 45 ft 4 kts 186°
2026-05-07 21:27 8.11118 98.30914 44 ft 11 kts 219°
2026-05-07 21:27 8.11081 98.30830 42 ft 9 kts 266°
2026-05-07 21:27 8.11073 98.30769 41 ft 9 kts 261°
2026-05-07 21:27 8.11063 98.30704 41 ft 7 kts 260°
2026-05-07 21:28 8.11054 98.30661 41 ft 0 kts 250°
2026-05-07 21:28 8.11052 98.30657 41 ft 2 kts 240°
2026-05-07 21:28 8.11039 98.30647 41 ft 2 kts 202°
2026-05-07 21:28 8.11024 98.30642 42 ft 1 kts 194°
2026-05-07 21:29 8.11013 98.30640 42 ft 1 kts 190°
2026-05-07 21:29 8.11007 98.30639 42 ft 0 kts 188°
2026-05-07 21:29 8.11006 98.30639 42 ft 0 kts 188°
2026-05-07 21:29 8.10995 98.30638 42 ft 4 kts 181°
2026-05-07 21:30 8.10985 98.30638 42 ft 0 kts 179°